Wetterdaten: Sonntag, 02.04.2017
Datum Zeit Temp. A. Feuchte A. Luftdruck Regen Wind Richtung Richtung Sonnenschein ET UV Solar Taupunkt Windchill Windben Empfang
02.04.2017 00:00 14,6 C 48 % 1009,2 hPa 0,0 l/m 3,5 km/h (1 Bft) S 184 0 min 0,000 mm 0,0 UV-I 0 W/m 3,7 C 14,6 C 8,0 km/h (2 Bft) 100,00 %
02.04.2017 00:02 14,2 C 51 % 1009,2 hPa 0,0 l/m 1,7 km/h (1 Bft) S 184 0 min 0,000 mm 0,0 UV-I 0 W/m 4,2 C 14,2 C 3,2 km/h (1 Bft) 92,50 %
02.04.2017 00:04 13,7 C 54 % 1009,3 hPa 0,0 l/m 1,7 km/h (1 Bft) S 184 0 min 0,000 mm 0,0 UV-I 0 W/m 4,6 C 13,7 C 3,2 km/h (1 Bft) 100,00 %
02.04.2017 00:06 13,2 C 56 % 1009,3 hPa 0,0 l/m 1,6 km/h (1 Bft) S 184 0 min 0,000 mm 0,0 UV-I 0 W/m 4,6 C 13,2 C 3,2 km/h (1 Bft) 98,11 %
02.04.2017 00:08 12,6 C 62 % 1009,3 hPa 0,0 l/m 2,8 km/h (1 Bft) O-NO 78 0 min 0,000 mm 0,0 UV-I 0 W/m 5,5 C 12,6 C 4,8 km/h (1 Bft) 91,43 %
02.04.2017 00:10 11,7 C 65 % 1009,4 hPa 0,0 l/m 1,8 km/h (1 Bft) O-NO 76 0 min 0,000 mm 0,0 UV-I 0 W/m 5,3 C 11,7 C 3,2 km/h (1 Bft) 100,00 %
02.04.2017 00:12 11,3 C 67 % 1009,5 hPa 0,0 l/m 0,2 km/h (0 Bft) O-NO 76 0 min 0,000 mm 0,0 UV-I 0 W/m 5,4 C 11,3 C 1,6 km/h (1 Bft) 98,11 %
02.04.2017 00:14 11,1 C 67 % 1009,5 hPa 0,0 l/m 0,1 km/h (0 Bft) O-NO 76 0 min 0,000 mm 0,0 UV-I 0 W/m 5,2 C 11,1 C 1,6 km/h (1 Bft) 100,00 %
02.04.2017 00:16 11,1 C 67 % 1009,5 hPa 0,0 l/m 0,5 km/h (0 Bft) O-NO 76 0 min 0,000 mm 0,0 UV-I 0 W/m 5,2 C 11,1 C 1,6 km/h (1 Bft) 97,87 %
02.04.2017 00:18 11,0 C 67 % 1009,5 hPa 0,0 l/m 3,5 km/h (1 Bft) O-NO 76 0 min 0,000 mm 0,0 UV-I 0 W/m 5,1 C 11,0 C 4,8 km/h (1 Bft) 96,00 %
02.04.2017 00:20 11,1 C 69 % 1009,5 hPa 0,0 l/m 4,3 km/h (1 Bft) O-NO 76 0 min 0,000 mm 0,0 UV-I 0 W/m 5,6 C 11,1 C 6,4 km/h (2 Bft) 100,00 %
02.04.2017 00:22 11,1 C 70 % 1009,5 hPa 0,0 l/m 3,8 km/h (1 Bft) O-NO 76 0 min 0,000 mm 0,0 UV-I 0 W/m 5,8 C 11,1 C 4,8 km/h (1 Bft) 100,00 %
02.04.2017 00:24 11,1 C 71 % 1009,5 hPa 0,0 l/m 1,9 km/h (1 Bft) O-NO 76 0 min 0,000 mm 0,0 UV-I 0 W/m 6,0 C 11,1 C 3,2 km/h (1 Bft) 100,00 %
02.04.2017 00:26 11,1 C 72 % 1009,6 hPa 0,0 l/m 0,6 km/h (0 Bft) O-NO 76 0 min 0,000 mm 0,0 UV-I 0 W/m 6,2 C 11,1 C 3,2 km/h (1 Bft) 100,00 %
02.04.2017 00:28 11,2 C 72 % 1009,6 hPa 0,0 l/m 0,0 km/h (0 Bft) O-NO 76 0 min 0,000 mm 0,0 UV-I 0 W/m 6,3 C 11,2 C 0,0 km/h (0 Bft) 97,87 %
02.04.2017 00:30 11,3 C 72 % 1009,6 hPa 0,0 l/m 0,1 km/h (0 Bft) O-NO 76 0 min 0,000 mm 0,0 UV-I 0 W/m 6,4 C 11,3 C 1,6 km/h (1 Bft) 92,68 %
02.04.2017 00:32 11,3 C 71 % 1009,6 hPa 0,0 l/m 1,4 km/h (1 Bft) O-NO 76 0 min 0,000 mm 0,0 UV-I 0 W/m 6,2 C 11,3 C 3,2 km/h (1 Bft) 96,00 %
02.04.2017 00:34 11,4 C 71 % 1009,6 hPa 0,0 l/m 2,8 km/h (1 Bft) O-NO 76 0 min 0,000 mm 0,0 UV-I 0 W/m 6,3 C 11,4 C 4,8 km/h (1 Bft) 96,00 %
02.04.2017 00:36 11,5 C 70 % 1009,6 hPa 0,0 l/m 3,8 km/h (1 Bft) O-NO 76 0 min 0,000 mm 0,0 UV-I 0 W/m 6,2 C 11,5 C 4,8 km/h (1 Bft) 98,00 %
02.04.2017 00:38 11,6 C 69 % 1009,6 hPa 0,0 l/m 2,5 km/h (1 Bft) O-NO 76 0 min 0,000 mm 0,0 UV-I 0 W/m 6,1 C 11,6 C 4,8 km/h (1 Bft) 97,44 %
02.04.2017 00:40 11,7 C 68 % 1009,6 hPa 0,0 l/m 5,7 km/h (1 Bft) O-NO 57 0 min 0,000 mm 0,0 UV-I 0 W/m 6,0 C 11,7 C 8,0 km/h (2 Bft) 100,00 %
02.04.2017 00:42 11,8 C 71 % 1009,6 hPa 0,0 l/m 6,2 km/h (2 Bft) NO 51 0 min 0,000 mm 0,0 UV-I 0 W/m 6,7 C 11,8 C 8,0 km/h (2 Bft) 98,21 %
02.04.2017 00:44 11,8 C 72 % 1009,6 hPa 0,0 l/m 4,6 km/h (1 Bft) NO 51 0 min 0,000 mm 0,0 UV-I 0 W/m 6,9 C 11,8 C 8,0 km/h (2 Bft) 95,12 %
02.04.2017 00:46 11,8 C 72 % 1009,7 hPa 0,0 l/m 1,8 km/h (1 Bft) NO 51 0 min 0,000 mm 0,0 UV-I 0 W/m 6,9 C 11,8 C 3,2 km/h (1 Bft) 98,00 %
02.04.2017 00:48 11,8 C 72 % 1009,6 hPa 0,0 l/m 1,1 km/h (1 Bft) NO 51 0 min 0,000 mm 0,0 UV-I 0 W/m 6,9 C 11,8 C 1,6 km/h (1 Bft) 97,87 %
02.04.2017 00:50 11,7 C 72 % 1009,6 hPa 0,0 l/m 2,1 km/h (1 Bft) NO 51 0 min 0,000 mm 0,0 UV-I 0 W/m 6,8 C 11,7 C 3,2 km/h (1 Bft) 97,87 %
02.04.2017 00:52 11,5 C 72 % 1009,6 hPa 0,0 l/m 1,0 km/h (0 Bft) NO 51 0 min 0,000 mm 0,0 UV-I 0 W/m 6,6 C 11,5 C 3,2 km/h (1 Bft) 97,87 %
02.04.2017 00:54 11,3 C 73 % 1009,7 hPa 0,0 l/m 1,2 km/h (1 Bft) NO 51 0 min 0,000 mm 0,0 UV-I 0 W/m 6,6 C 11,3 C 3,2 km/h (1 Bft) 98,00 %
02.04.2017 00:56 11,2 C 73 % 1009,7 hPa 0,0 l/m 1,9 km/h (1 Bft) NO 51 0 min 0,000 mm 0,0 UV-I 0 W/m 6,5 C 11,2 C 3,2 km/h (1 Bft) 100,00 %
02.04.2017 00:58 11,1 C 74 % 1009,7 hPa 0,0 l/m 0,4 km/h (0 Bft) NO 51 0 min 0,000 mm 0,0 UV-I 0 W/m 6,6 C 11,1 C 1,6 km/h (1 Bft) 98,11 %
02.04.2017 01:00 10,9 C 74 % 1009,7 hPa 0,0 l/m 0,6 km/h (0 Bft) NO 51 0 min 0,025 mm 0,0 UV-I 0 W/m 6,5 C 10,9 C 3,2 km/h (1 Bft) 100,00 %
02.04.2017 01:01 10,8 C 75 % 1009,7 hPa 0,0 l/m 3,3 km/h (1 Bft) NO 51 0 min 0,000 mm 0,0 UV-I 0 W/m 6,5 C 10,8 C 4,8 km/h (1 Bft) 97,87 %
02.04.2017 01:04 10,9 C 75 % 1009,7 hPa 0,0 l/m 3,1 km/h (1 Bft) NO 51 0 min 0,000 mm 0,0 UV-I 0 W/m 6,6 C 10,9 C 4,8 km/h (1 Bft) 97,87 %
02.04.2017 01:06 10,9 C 76 % 1009,8 hPa 0,0 l/m 4,6 km/h (1 Bft) NO 51 0 min 0,000 mm 0,0 UV-I 0 W/m 6,8 C 10,9 C 4,8 km/h (1 Bft) 94,00 %
02.04.2017 01:08 10,8 C 76 % 1009,8 hPa 0,0 l/m 3,5 km/h (1 Bft) NO 51 0 min 0,000 mm 0,0 UV-I 0 W/m 6,7 C 10,8 C 4,8 km/h (1 Bft) 98,11 %
02.04.2017 01:10 10,8 C 77 % 1009,8 hPa 0,0 l/m 3,5 km/h (1 Bft) NO 51 0 min 0,000 mm 0,0 UV-I 0 W/m 6,9 C 10,8 C 4,8 km/h (1 Bft) 100,00 %
02.04.2017 01:12 10,8 C 77 % 1009,8 hPa 0,0 l/m 2,5 km/h (1 Bft) NO 51 0 min 0,000 mm 0,0 UV-I 0 W/m 6,9 C 10,8 C 3,2 km/h (1 Bft) 98,11 %
02.04.2017 01:14 10,9 C 77 % 1009,7 hPa 0,0 l/m 0,2 km/h (0 Bft) NO 51 0 min 0,000 mm 0,0 UV-I 0 W/m 7,0 C 10,9 C 1,6 km/h (1 Bft) 100,00 %
02.04.2017 01:16 10,8 C 76 % 1009,7 hPa 0,0 l/m 0,6 km/h (0 Bft) NO 51 0 min 0,000 mm 0,0 UV-I 0 W/m 6,7 C 10,8 C 1,6 km/h (1 Bft) 94,00 %
02.04.2017 01:18 10,7 C 77 % 1009,8 hPa 0,0 l/m 1,8 km/h (1 Bft) NO 51 0 min 0,000 mm 0,0 UV-I 0 W/m 6,8 C 10,7 C 3,2 km/h (1 Bft) 97,87 %
02.04.2017 01:20 10,3 C 77 % 1009,7 hPa 0,0 l/m 1,1 km/h (1 Bft) NO 51 0 min 0,000 mm 0,0 UV-I 0 W/m 6,4 C 10,3 C 3,2 km/h (1 Bft) 96,23 %
02.04.2017 01:22 10,1 C 77 % 1009,8 hPa 0,0 l/m 2,7 km/h (1 Bft) NO 51 0 min 0,000 mm 0,0 UV-I 0 W/m 6,3 C 10,1 C 4,8 km/h (1 Bft) 96,00 %
02.04.2017 01:24 9,8 C 78 % 1009,8 hPa 0,0 l/m 2,6 km/h (1 Bft) NO 51 0 min 0,000 mm 0,0 UV-I 0 W/m 6,1 C 9,8 C 3,2 km/h (1 Bft) 95,74 %
02.04.2017 01:26 9,8 C 79 % 1009,9 hPa 0,0 l/m 0,4 km/h (0 Bft) NO 51 0 min 0,000 mm 0,0 UV-I 0 W/m 6,3 C 9,8 C 1,6 km/h (1 Bft) 97,37 %
02.04.2017 01:28 9,8 C 79 % 1009,9 hPa 0,0 l/m 2,7 km/h (1 Bft) NO 51 0 min 0,000 mm 0,0 UV-I 0 W/m 6,3 C 9,8 C 3,2 km/h (1 Bft) 95,74 %
02.04.2017 01:30 9,8 C 79 % 1009,9 hPa 0,0 l/m 0,5 km/h (0 Bft) NO 51 0 min 0,000 mm 0,0 UV-I 0 W/m 6,3 C 9,8 C 1,6 km/h (1 Bft) 95,74 %
02.04.2017 01:32 9,9 C 80 % 1009,8 hPa 0,0 l/m 0,0 km/h (0 Bft) NO 51 0 min 0,000 mm 0,0 UV-I 0 W/m 6,6 C 9,9 C 0,0 km/h (0 Bft) 95,74 %
02.04.2017 01:34 9,9 C 79 % 1009,9 hPa 0,0 l/m 0,0 km/h (0 Bft) NO 51 0 min 0,000 mm 0,0 UV-I 0 W/m 6,4 C 9,9 C 0,0 km/h (0 Bft) 95,12 %
02.04.2017 01:36 9,8 C 79 % 1009,9 hPa 0,0 l/m 1,7 km/h (1 Bft) NO 51 0 min 0,000 mm 0,0 UV-I 0 W/m 6,3 C 9,8 C 3,2 km/h (1 Bft) 98,00 %
02.04.2017 01:38 9,6 C 79 % 1009,9 hPa 0,0 l/m 2,1 km/h (1 Bft) NO 51 0 min 0,000 mm 0,0 UV-I 0 W/m 6,1 C 9,6 C 4,8 km/h (1 Bft) 94,00 %
02.04.2017 01:40 9,5 C 79 % 1009,9 hPa 0,0 l/m 3,1 km/h (1 Bft) NO 51 0 min 0,000 mm 0,0 UV-I 0 W/m 6,0 C 9,5 C 4,8 km/h (1 Bft) 97,73 %
02.04.2017 01:42 9,6 C 78 % 1009,8 hPa 0,0 l/m 2,1 km/h (1 Bft) NO 51 0 min 0,000 mm 0,0 UV-I 0 W/m 6,0 C 9,6 C 3,2 km/h (1 Bft) 94,34 %
02.04.2017 01:44 9,5 C 78 % 1009,9 hPa 0,0 l/m 1,8 km/h (1 Bft) NO 51 0 min 0,000 mm 0,0 UV-I 0 W/m 5,9 C 9,5 C 4,8 km/h (1 Bft) 94,00 %
02.04.2017 01:46 9,3 C 79 % 1009,9 hPa 0,0 l/m 0,2 km/h (0 Bft) NO 51 0 min 0,000 mm 0,0 UV-I 0 W/m 5,8 C 9,3 C 1,6 km/h (1 Bft) 95,12 %
02.04.2017 01:48 9,1 C 80 % 1009,8 hPa 0,0 l/m 1,9 km/h (1 Bft) NO 51 0 min 0,000 mm 0,0 UV-I 0 W/m 5,8 C 9,1 C 3,2 km/h (1 Bft) 90,00 %
02.04.2017 01:50 8,9 C 81 % 1009,9 hPa 0,0 l/m 2,8 km/h (1 Bft) NO 51 0 min 0,000 mm 0,0 UV-I 0 W/m 5,8 C 8,9 C 3,2 km/h (1 Bft) 93,62 %
02.04.2017 01:52 8,9 C 82 % 1009,9 hPa 0,0 l/m 2,4 km/h (1 Bft) NO 51 0 min 0,000 mm 0,0 UV-I 0 W/m 6,0 C 8,9 C 3,2 km/h (1 Bft) 88,00 %
02.04.2017 01:54 8,9 C 82 % 1009,9 hPa 0,0 l/m 2,2 km/h (1 Bft) NO 51 0 min 0,000 mm 0,0 UV-I 0 W/m 6,0 C 8,9 C 3,2 km/h (1 Bft) 92,68 %
02.04.2017 01:56 9,0 C 82 % 1010,0 hPa 0,0 l/m 2,9 km/h (1 Bft) NO 51 0 min 0,000 mm 0,0 UV-I 0 W/m 6,1 C 9,0 C 4,8 km/h (1 Bft) 92,86 %
02.04.2017 01:58 9,3 C 82 % 1010,0 hPa 0,0 l/m 3,9 km/h (1 Bft) NO 51 0 min 0,000 mm 0,0 UV-I 0 W/m 6,4 C 9,3 C 4,8 km/h (1 Bft) 97,56 %
02.04.2017 02:00 9,4 C 81 % 1010,0 hPa 0,0 l/m 2,7 km/h (1 Bft) NO 51 0 min 0,000 mm 0,0 UV-I 0 W/m 6,3 C 9,4 C 4,8 km/h (1 Bft) 98,00 %
02.04.2017 02:02 9,5 C 81 % 1010,0 hPa 0,0 l/m 1,9 km/h (1 Bft) NO 51 0 min 0,000 mm 0,0 UV-I 0 W/m 6,4 C 9,5 C 3,2 km/h (1 Bft) 98,31 %
02.04.2017 02:04 9,6 C 80 % 1010,0 hPa 0,0 l/m 2,1 km/h (1 Bft) NO 51 0 min 0,000 mm 0,0 UV-I 0 W/m 6,3 C 9,6 C 3,2 km/h (1 Bft) 94,74 %
02.04.2017 02:06 9,7 C 79 % 1010,0 hPa 0,0 l/m 1,1 km/h (1 Bft) NO 51 0 min 0,000 mm 0,0 UV-I 0 W/m 6,2 C 9,7 C 3,2 km/h (1 Bft) 98,11 %
02.04.2017 02:08 9,6 C 79 % 1010,0 hPa 0,0 l/m 2,0 km/h (1 Bft) NO 51 0 min 0,000 mm 0,0 UV-I 0 W/m 6,1 C 9,6 C 3,2 km/h (1 Bft) 95,74 %
02.04.2017 02:10 9,3 C 79 % 1010,0 hPa 0,0 l/m 1,8 km/h (1 Bft) NO 53 0 min 0,000 mm 0,0 UV-I 0 W/m 5,8 C 9,3 C 4,8 km/h (1 Bft) 97,73 %
02.04.2017 02:12 9,1 C 80 % 1010,0 hPa 0,0 l/m 2,1 km/h (1 Bft) O 99 0 min 0,000 mm 0,0 UV-I 0 W/m 5,8 C 9,1 C 4,8 km/h (1 Bft) 94,34 %
02.04.2017 02:14 9,0 C 81 % 1010,0 hPa 0,0 l/m 0,0 km/h (0 Bft) O 99 0 min 0,000 mm 0,0 UV-I 0 W/m 5,9 C 9,0 C 0,0 km/h (0 Bft) 95,83 %
02.04.2017 02:16 9,0 C 81 % 1010,0 hPa 0,0 l/m 0,5 km/h (0 Bft) O 99 0 min 0,000 mm 0,0 UV-I 0 W/m 5,9 C 9,0 C 1,6 km/h (1 Bft) 94,74 %
02.04.2017 02:18 8,9 C 81 % 1010,0 hPa 0,0 l/m 1,3 km/h (1 Bft) O 99 0 min 0,000 mm 0,0 UV-I 0 W/m 5,8 C 8,9 C 3,2 km/h (1 Bft) 95,74 %
02.04.2017 02:20 8,9 C 81 % 1010,0 hPa 0,0 l/m 0,7 km/h (0 Bft) O 99 0 min 0,000 mm 0,0 UV-I 0 W/m 5,8 C 8,9 C 1,6 km/h (1 Bft) 97,56 %
02.04.2017 02:22 9,0 C 81 % 1010,1 hPa 0,0 l/m 0,9 km/h (0 Bft) O 99 0 min 0,000 mm 0,0 UV-I 0 W/m 5,9 C 9,0 C 3,2 km/h (1 Bft) 98,00 %
02.04.2017 02:24 8,9 C 81 % 1010,1 hPa 0,0 l/m 0,0 km/h (0 Bft) O 99 0 min 0,000 mm 0,0 UV-I 0 W/m 5,8 C 8,9 C 1,6 km/h (1 Bft) 94,00 %
02.04.2017 02:26 8,9 C 81 % 1010,1 hPa 0,0 l/m 0,8 km/h (0 Bft) O 99 0 min 0,000 mm 0,0 UV-I 0 W/m 5,8 C 8,9 C 3,2 km/h (1 Bft) 92,00 %
02.04.2017 02:28 8,8 C 81 % 1010,1 hPa 0,0 l/m 1,0 km/h (0 Bft) O 99 0 min 0,000 mm 0,0 UV-I 0 W/m 5,7 C 8,8 C 3,2 km/h (1 Bft) 95,12 %
02.04.2017 02:30 8,7 C 81 % 1010,1 hPa 0,0 l/m 1,2 km/h (1 Bft) O 99 0 min 0,000 mm 0,0 UV-I 0 W/m 5,6 C 8,7 C 3,2 km/h (1 Bft) 92,45 %
02.04.2017 02:32 8,7 C 81 % 1010,2 hPa 0,0 l/m 1,1 km/h (1 Bft) O 99 0 min 0,000 mm 0,0 UV-I 0 W/m 5,6 C 8,7 C 4,8 km/h (1 Bft) 95,12 %
02.04.2017 02:34 8,8 C 81 % 1010,1 hPa 0,0 l/m 0,8 km/h (0 Bft) O 99 0 min 0,000 mm 0,0 UV-I 0 W/m 5,7 C 8,8 C 3,2 km/h (1 Bft) 94,00 %
02.04.2017 02:36 8,8 C 81 % 1010,1 hPa 0,0 l/m 0,5 km/h (0 Bft) O 99 0 min 0,000 mm 0,0 UV-I 0 W/m 5,7 C 8,8 C 1,6 km/h (1 Bft) 97,44 %
02.04.2017 02:38 8,7 C 81 % 1010,1 hPa 0,0 l/m 3,2 km/h (1 Bft) O-SO 108 0 min 0,000 mm 0,0 UV-I 0 W/m 5,6 C 8,7 C 4,8 km/h (1 Bft) 94,64 %
02.04.2017 02:40 8,7 C 81 % 1010,1 hPa 0,0 l/m 6,0 km/h (2 Bft) S-SO 165 0 min 0,000 mm 0,0 UV-I 0 W/m 5,6 C 8,7 C 8,0 km/h (2 Bft) 92,31 %
02.04.2017 02:42 8,7 C 81 % 1010,1 hPa 0,0 l/m 4,5 km/h (1 Bft) S 173 0 min 0,000 mm 0,0 UV-I 0 W/m 5,6 C 8,7 C 8,0 km/h (2 Bft) 94,44 %
02.04.2017 02:44 8,6 C 81 % 1010,2 hPa 0,0 l/m 4,8 km/h (1 Bft) S 180 0 min 0,000 mm 0,0 UV-I 0 W/m 5,5 C 8,6 C 8,0 km/h (2 Bft) 96,23 %
02.04.2017 02:46 8,6 C 81 % 1010,2 hPa 0,0 l/m 3,2 km/h (1 Bft) S 178 0 min 0,000 mm 0,0 UV-I 0 W/m 5,5 C 8,6 C 6,4 km/h (2 Bft) 94,74 %
02.04.2017 02:48 8,7 C 81 % 1010,2 hPa 0,0 l/m 2,2 km/h (1 Bft) S 178 0 min 0,000 mm 0,0 UV-I 0 W/m 5,6 C 8,7 C 4,8 km/h (1 Bft) 98,21 %
02.04.2017 02:50 8,7 C 80 % 1010,2 hPa 0,0 l/m 3,9 km/h (1 Bft) S 178 0 min 0,000 mm 0,0 UV-I 0 W/m 5,4 C 8,7 C 4,8 km/h (1 Bft) 100,00 %
02.04.2017 02:52 8,7 C 80 % 1010,2 hPa 0,0 l/m 4,8 km/h (1 Bft) S 178 0 min 0,000 mm 0,0 UV-I 0 W/m 5,4 C 8,7 C 6,4 km/h (2 Bft) 97,87 %
02.04.2017 02:54 8,6 C 80 % 1010,2 hPa 0,0 l/m 4,1 km/h (1 Bft) S 178 0 min 0,000 mm 0,0 UV-I 0 W/m 5,3 C 8,6 C 6,4 km/h (2 Bft) 100,00 %
02.04.2017 02:56 8,6 C 80 % 1010,2 hPa 0,0 l/m 3,6 km/h (1 Bft) S 177 0 min 0,000 mm 0,0 UV-I 0 W/m 5,3 C 8,6 C 4,8 km/h (1 Bft) 100,00 %
02.04.2017 02:58 8,6 C 80 % 1010,2 hPa 0,0 l/m 3,1 km/h (1 Bft) S 177 0 min 0,000 mm 0,0 UV-I 0 W/m 5,3 C 8,6 C 4,8 km/h (1 Bft) 95,74 %
02.04.2017 03:00 8,7 C 80 % 1010,3 hPa 0,0 l/m 3,5 km/h (1 Bft) S 177 0 min 0,000 mm 0,0 UV-I 0 W/m 5,4 C 8,7 C 4,8 km/h (1 Bft) 100,00 %
02.04.2017 03:02 8,7 C 79 % 1010,2 hPa 0,0 l/m 3,1 km/h (1 Bft) S 177 0 min 0,000 mm 0,0 UV-I 0 W/m 5,3 C 8,7 C 4,8 km/h (1 Bft) 92,11 %
02.04.2017 03:04 8,6 C 79 % 1010,3 hPa 0,0 l/m 2,7 km/h (1 Bft) S 177 0 min 0,000 mm 0,0 UV-I 0 W/m 5,2 C 8,6 C 4,8 km/h (1 Bft) 96,23 %
02.04.2017 03:06 8,7 C 79 % 1010,3 hPa 0,0 l/m 3,1 km/h (1 Bft) S 177 0 min 0,000 mm 0,0 UV-I 0 W/m 5,3 C 8,7 C 4,8 km/h (1 Bft) 100,00 %
02.04.2017 03:08 8,7 C 79 % 1010,3 hPa 0,0 l/m 3,3 km/h (1 Bft) S 177 0 min 0,000 mm 0,0 UV-I 0 W/m 5,3 C 8,7 C 4,8 km/h (1 Bft) 97,87 %
02.04.2017 03:10 8,7 C 78 % 1010,4 hPa 0,0 l/m 3,0 km/h (1 Bft) S 177 0 min 0,000 mm 0,0 UV-I 0 W/m 5,1 C 8,7 C 4,8 km/h (1 Bft) 97,87 %
02.04.2017 03:12 8,8 C 78 % 1010,3 hPa 0,0 l/m 2,2 km/h (1 Bft) S 177 0 min 0,000 mm 0,0 UV-I 0 W/m 5,2 C 8,8 C 4,8 km/h (1 Bft) 97,37 %
02.04.2017 03:14 8,7 C 78 % 1010,3 hPa 0,0 l/m 2,1 km/h (1 Bft) S 177 0 min 0,000 mm 0,0 UV-I 0 W/m 5,1 C 8,7 C 3,2 km/h (1 Bft) 100,00 %
02.04.2017 03:16 8,6 C 78 % 1010,4 hPa 0,0 l/m 1,7 km/h (1 Bft) S 177 0 min 0,000 mm 0,0 UV-I 0 W/m 5,0 C 8,6 C 3,2 km/h (1 Bft) 97,96 %
02.04.2017 03:18 8,6 C 78 % 1010,4 hPa 0,0 l/m 1,1 km/h (1 Bft) S 177 0 min 0,000 mm 0,0 UV-I 0 W/m 5,0 C 8,6 C 3,2 km/h (1 Bft) 100,00 %
02.04.2017 03:20 8,6 C 78 % 1010,3 hPa 0,0 l/m 0,0 km/h (0 Bft) S 177 0 min 0,000 mm 0,0 UV-I 0 W/m 5,0 C 8,6 C 1,6 km/h (1 Bft) 98,21 %
02.04.2017 03:22 8,6 C 78 % 1010,4 hPa 0,0 l/m 0,0 km/h (0 Bft) S 177 0 min 0,000 mm 0,0 UV-I 0 W/m 5,0 C 8,6 C 1,6 km/h (1 Bft) 98,00 %
02.04.2017 03:24 8,6 C 79 % 1010,4 hPa 0,0 l/m 1,0 km/h (0 Bft) S 177 0 min 0,000 mm 0,0 UV-I 0 W/m 5,2 C 8,6 C 1,6 km/h (1 Bft) 97,37 %
02.04.2017 03:26 8,6 C 79 % 1010,4 hPa 0,0 l/m 1,0 km/h (0 Bft) S 177 0 min 0,000 mm 0,0 UV-I 0 W/m 5,2 C 8,6 C 1,6 km/h (1 Bft) 96,23 %
02.04.2017 03:28 8,6 C 78 % 1010,5 hPa 0,0 l/m 1,9 km/h (1 Bft) S 177 0 min 0,000 mm 0,0 UV-I 0 W/m 5,0 C 8,6 C 3,2 km/h (1 Bft) 98,00 %
02.04.2017 03:30 8,7 C 77 % 1010,6 hPa 0,0 l/m 2,6 km/h (1 Bft) S 177 0 min 0,000 mm 0,0 UV-I 0 W/m 4,9 C 8,7 C 3,2 km/h (1 Bft) 94,74 %
02.04.2017 03:32 8,6 C 78 % 1010,6 hPa 0,0 l/m 3,4 km/h (1 Bft) S 178 0 min 0,000 mm 0,0 UV-I 0 W/m 5,0 C 8,6 C 4,8 km/h (1 Bft) 100,00 %
02.04.2017 03:34 8,4 C 78 % 1010,7 hPa 0,0 l/m 5,1 km/h (1 Bft) S-SW 205 0 min 0,000 mm 0,0 UV-I 0 W/m 4,8 C 8,4 C 6,4 km/h (2 Bft) 98,11 %
02.04.2017 03:36 8,3 C 79 % 1010,7 hPa 0,0 l/m 5,7 km/h (1 Bft) S-SW 205 0 min 0,000 mm 0,0 UV-I 0 W/m 4,9 C 8,3 C 8,0 km/h (2 Bft) 94,74 %
02.04.2017 03:38 8,1 C 79 % 1010,8 hPa 0,0 l/m 3,9 km/h (1 Bft) S-SW 205 0 min 0,000 mm 0,0 UV-I 0 W/m 4,7 C 8,1 C 6,4 km/h (2 Bft) 96,00 %
02.04.2017 03:40 8,0 C 80 % 1010,8 hPa 0,0 l/m 4,9 km/h (1 Bft) S-SW 202 0 min 0,000 mm 0,0 UV-I 0 W/m 4,8 C 8,0 C 6,4 km/h (2 Bft) 95,74 %
02.04.2017 03:42 8,1 C 80 % 1010,8 hPa 0,0 l/m 5,2 km/h (1 Bft) S-SW 202 0 min 0,000 mm 0,0 UV-I 0 W/m 4,9 C 8,1 C 8,0 km/h (2 Bft) 92,11 %
02.04.2017 03:44 8,2 C 79 % 1010,9 hPa 0,0 l/m 4,7 km/h (1 Bft) S 188 0 min 0,000 mm 0,0 UV-I 0 W/m 4,8 C 8,2 C 6,4 km/h (2 Bft) 96,23 %
02.04.2017 03:46 8,2 C 79 % 1010,9 hPa 0,0 l/m 3,8 km/h (1 Bft) S 186 0 min 0,000 mm 0,0 UV-I 0 W/m 4,8 C 8,2 C 6,4 km/h (2 Bft) 97,87 %
02.04.2017 03:48 8,2 C 79 % 1010,9 hPa 0,0 l/m 5,2 km/h (1 Bft) S 188 0 min 0,000 mm 0,0 UV-I 0 W/m 4,8 C 8,2 C 8,0 km/h (2 Bft) 92,86 %
02.04.2017 03:50 8,3 C 78 % 1010,9 hPa 0,0 l/m 7,0 km/h (2 Bft) S-SW 212 0 min 0,000 mm 0,0 UV-I 0 W/m 4,7 C 7,8 C 9,7 km/h (2 Bft) 95,12 %
02.04.2017 03:52 8,7 C 77 % 1010,9 hPa 0,0 l/m 6,5 km/h (2 Bft) S-SW 200 0 min 0,000 mm 0,0 UV-I 0 W/m 4,9 C 8,6 C 8,0 km/h (2 Bft) 96,30 %
02.04.2017 03:54 8,8 C 76 % 1010,9 hPa 0,0 l/m 4,9 km/h (1 Bft) S-SW 195 0 min 0,000 mm 0,0 UV-I 0 W/m 4,8 C 8,8 C 6,4 km/h (2 Bft) 94,03 %
02.04.2017 03:56 8,9 C 75 % 1010,9 hPa 0,0 l/m 5,2 km/h (1 Bft) S-SW 196 0 min 0,000 mm 0,0 UV-I 0 W/m 4,7 C 8,9 C 6,4 km/h (2 Bft) 97,92 %
02.04.2017 03:58 9,0 C 75 % 1010,9 hPa 0,0 l/m 6,5 km/h (2 Bft) SW 214 0 min 0,000 mm 0,0 UV-I 0 W/m 4,8 C 9,0 C 9,7 km/h (2 Bft) 97,62 %
02.04.2017 04:00 9,2 C 73 % 1011,0 hPa 0,0 l/m 7,0 km/h (2 Bft) S-SW 213 0 min 0,000 mm 0,0 UV-I 0 W/m 4,6 C 8,8 C 8,0 km/h (2 Bft) 97,87 %
02.04.2017 04:02 9,4 C 72 % 1011,0 hPa 0,0 l/m 5,9 km/h (2 Bft) SW 226 0 min 0,000 mm 0,0 UV-I 0 W/m 4,6 C 9,4 C 9,7 km/h (2 Bft) 96,55 %
02.04.2017 04:04 9,6 C 71 % 1011,1 hPa 0,0 l/m 6,3 km/h (2 Bft) SW 223 0 min 0,000 mm 0,0 UV-I 0 W/m 4,6 C 9,6 C 8,0 km/h (2 Bft) 97,87 %
02.04.2017 04:06 9,7 C 70 % 1011,2 hPa 0,0 l/m 7,8 km/h (2 Bft) S-SW 212 0 min 0,000 mm 0,0 UV-I 0 W/m 4,5 C 8,7 C 9,7 km/h (2 Bft) 92,45 %
02.04.2017 04:08 9,8 C 69 % 1011,1 hPa 0,0 l/m 8,8 km/h (2 Bft) S-SW 209 0 min 0,000 mm 0,0 UV-I 0 W/m 4,4 C 8,1 C 11,3 km/h (2 Bft) 100,00 %
02.04.2017 04:10 9,7 C 70 % 1011,1 hPa 0,0 l/m 6,8 km/h (2 Bft) S-SW 195 0 min 0,000 mm 0,0 UV-I 0 W/m 4,5 C 9,4 C 9,7 km/h (2 Bft) 94,64 %
02.04.2017 04:12 9,6 C 70 % 1011,1 hPa 0,0 l/m 5,3 km/h (1 Bft) S-SW 195 0 min 0,000 mm 0,0 UV-I 0 W/m 4,4 C 9,6 C 8,0 km/h (2 Bft) 95,12 %
02.04.2017 04:14 9,6 C 70 % 1011,1 hPa 0,0 l/m 5,4 km/h (1 Bft) S-SW 198 0 min 0,000 mm 0,0 UV-I 0 W/m 4,4 C 9,6 C 6,4 km/h (2 Bft) 92,00 %
02.04.2017 04:16 9,6 C 69 % 1011,1 hPa 0,0 l/m 4,2 km/h (1 Bft) S-SW 198 0 min 0,000 mm 0,0 UV-I 0 W/m 4,2 C 9,6 C 6,4 km/h (2 Bft) 97,37 %
02.04.2017 04:18 9,4 C 70 % 1011,1 hPa 0,0 l/m 4,7 km/h (1 Bft) S-SW 196 0 min 0,000 mm 0,0 UV-I 0 W/m 4,2 C 9,4 C 6,4 km/h (2 Bft) 94,34 %
02.04.2017 04:20 9,4 C 70 % 1011,2 hPa 0,0 l/m 3,2 km/h (1 Bft) S-SW 196 0 min 0,000 mm 0,0 UV-I 0 W/m 4,2 C 9,4 C 4,8 km/h (1 Bft) 96,23 %
02.04.2017 04:22 9,4 C 70 % 1011,1 hPa 0,0 l/m 3,5 km/h (1 Bft) S 178 0 min 0,000 mm 0,0 UV-I 0 W/m 4,2 C 9,4 C 4,8 km/h (1 Bft) 100,00 %
02.04.2017 04:24 9,7 C 68 % 1011,2 hPa 0,0 l/m 4,3 km/h (1 Bft) S 171 0 min 0,000 mm 0,0 UV-I 0 W/m 4,1 C 9,7 C 6,4 km/h (2 Bft) 98,51 %
02.04.2017 04:26 10,0 C 67 % 1011,2 hPa 0,0 l/m 3,6 km/h (1 Bft) S 176 0 min 0,000 mm 0,0 UV-I 0 W/m 4,2 C 10,0 C 6,4 km/h (2 Bft) 100,00 %
02.04.2017 04:28 10,2 C 66 % 1011,1 hPa 0,0 l/m 4,5 km/h (1 Bft) S-SO 167 0 min 0,000 mm 0,0 UV-I 0 W/m 4,1 C 10,2 C 8,0 km/h (2 Bft) 95,74 %
02.04.2017 04:30 10,4 C 65 % 1011,2 hPa 0,0 l/m 5,5 km/h (1 Bft) S 171 0 min 0,000 mm 0,0 UV-I 0 W/m 4,1 C 10,4 C 8,0 km/h (2 Bft) 96,23 %
02.04.2017 04:32 10,6 C 64 % 1011,2 hPa 0,0 l/m 6,1 km/h (2 Bft) S 188 0 min 0,000 mm 0,0 UV-I 0 W/m 4,1 C 10,6 C 11,3 km/h (2 Bft) 100,00 %
02.04.2017 04:34 10,8 C 64 % 1011,1 hPa 0,0 l/m 6,3 km/h (2 Bft) S 178 0 min 0,000 mm 0,0 UV-I 0 W/m 4,3 C 10,8 C 12,9 km/h (3 Bft) 92,45 %
02.04.2017 04:36 10,9 C 63 % 1011,2 hPa 0,0 l/m 7,2 km/h (2 Bft) S 191 0 min 0,000 mm 0,0 UV-I 0 W/m 4,1 C 10,3 C 12,9 km/h (3 Bft) 98,00 %
02.04.2017 04:38 11,0 C 62 % 1011,2 hPa 0,0 l/m 6,4 km/h (2 Bft) S-SO 159 0 min 0,000 mm 0,0 UV-I 0 W/m 4,0 C 11,0 C 11,3 km/h (2 Bft) 96,88 %
02.04.2017 04:40 11,1 C 62 % 1011,2 hPa 0,0 l/m 6,7 km/h (2 Bft) S 178 0 min 0,000 mm 0,0 UV-I 0 W/m 4,1 C 10,9 C 11,3 km/h (2 Bft) 96,92 %
02.04.2017 04:42 11,2 C 61 % 1011,2 hPa 0,0 l/m 7,1 km/h (2 Bft) S-SO 167 0 min 0,000 mm 0,0 UV-I 0 W/m 4,0 C 10,7 C 9,7 km/h (2 Bft) 100,00 %
02.04.2017 04:44 11,3 C 61 % 1011,2 hPa 0,0 l/m 7,6 km/h (2 Bft) S-SW 196 0 min 0,000 mm 0,0 UV-I 0 W/m 4,1 C 10,5 C 12,9 km/h (3 Bft) 96,61 %
02.04.2017 04:46 11,3 C 61 % 1011,2 hPa 0,0 l/m 7,8 km/h (2 Bft) S-SW 203 0 min 0,000 mm 0,0 UV-I 0 W/m 4,1 C 10,3 C 11,3 km/h (2 Bft) 100,00 %
02.04.2017 04:48 11,3 C 61 % 1011,2 hPa 0,0 l/m 7,9 km/h (2 Bft) S-SW 200 0 min 0,000 mm 0,0 UV-I 0 W/m 4,1 C 10,3 C 11,3 km/h (2 Bft) 94,29 %
02.04.2017 04:50 11,2 C 62 % 1011,2 hPa 0,0 l/m 7,3 km/h (2 Bft) S-SW 196 0 min 0,000 mm 0,0 UV-I 0 W/m 4,2 C 10,6 C 12,9 km/h (3 Bft) 100,00 %
02.04.2017 04:52 11,2 C 62 % 1011,2 hPa 0,0 l/m 6,9 km/h (2 Bft) SW 223 0 min 0,000 mm 0,0 UV-I 0 W/m 4,2 C 10,9 C 9,7 km/h (2 Bft) 100,00 %
02.04.2017 04:54 11,1 C 62 % 1011,2 hPa 0,0 l/m 7,0 km/h (2 Bft) SW 214 0 min 0,000 mm 0,0 UV-I 0 W/m 4,1 C 10,7 C 9,7 km/h (2 Bft) 98,11 %
02.04.2017 04:56 11,0 C 62 % 1011,2 hPa 0,0 l/m 6,4 km/h (2 Bft) SW 215 0 min 0,000 mm 0,0 UV-I 0 W/m 4,0 C 11,0 C 11,3 km/h (2 Bft) 98,11 %
02.04.2017 04:58 11,0 C 63 % 1011,2 hPa 0,0 l/m 7,5 km/h (2 Bft) SW 219 0 min 0,000 mm 0,0 UV-I 0 W/m 4,2 C 10,2 C 9,7 km/h (2 Bft) 97,87 %
02.04.2017 05:00 11,0 C 63 % 1011,3 hPa 0,0 l/m 8,9 km/h (2 Bft) SW 225 0 min 0,026 mm 0,0 UV-I 0 W/m 4,2 C 9,3 C 14,5 km/h (3 Bft) 100,00 %
02.04.2017 05:02 10,9 C 63 % 1011,3 hPa 0,0 l/m 6,1 km/h (2 Bft) SW 231 0 min 0,000 mm 0,0 UV-I 0 W/m 4,1 C 10,9 C 8,0 km/h (2 Bft) 96,00 %
02.04.2017 05:04 10,8 C 64 % 1011,4 hPa 0,0 l/m 6,1 km/h (2 Bft) S-SW 208 0 min 0,000 mm 0,0 UV-I 0 W/m 4,3 C 10,8 C 8,0 km/h (2 Bft) 100,00 %
02.04.2017 05:06 10,6 C 65 % 1011,4 hPa 0,0 l/m 6,1 km/h (2 Bft) W-SW 240 0 min 0,000 mm 0,0 UV-I 0 W/m 4,3 C 10,6 C 8,0 km/h (2 Bft) 97,56 %
02.04.2017 05:08 10,4 C 66 % 1011,4 hPa 0,0 l/m 6,7 km/h (2 Bft) SW 234 0 min 0,000 mm 0,0 UV-I 0 W/m 4,3 C 10,2 C 9,7 km/h (2 Bft) 98,00 %
02.04.2017 05:10 10,3 C 66 % 1011,5 hPa 0,0 l/m 5,8 km/h (2 Bft) SW 221 0 min 0,000 mm 0,0 UV-I 0 W/m 4,2 C 10,3 C 8,0 km/h (2 Bft) 100,00 %
02.04.2017 05:12 10,3 C 67 % 1011,5 hPa 0,0 l/m 5,8 km/h (2 Bft) S-SW 210 0 min 0,000 mm 0,0 UV-I 0 W/m 4,4 C 10,3 C 8,0 km/h (2 Bft) 97,87 %
02.04.2017 05:14 10,3 C 67 % 1011,4 hPa 0,0 l/m 5,2 km/h (1 Bft) SW 224 0 min 0,000 mm 0,0 UV-I 0 W/m 4,4 C 10,3 C 6,4 km/h (2 Bft) 100,00 %
02.04.2017 05:16 10,3 C 67 % 1011,5 hPa 0,0 l/m 6,7 km/h (2 Bft) SW 228 0 min 0,000 mm 0,0 UV-I 0 W/m 4,4 C 10,1 C 12,9 km/h (3 Bft) 97,56 %
02.04.2017 05:18 10,3 C 67 % 1011,5 hPa 0,0 l/m 7,5 km/h (2 Bft) W-SW 242 0 min 0,000 mm 0,0 UV-I 0 W/m 4,4 C 9,5 C 9,7 km/h (2 Bft) 100,00 %
02.04.2017 05:20 10,3 C 67 % 1011,4 hPa 0,0 l/m 7,1 km/h (2 Bft) SW 234 0 min 0,000 mm 0,0 UV-I 0 W/m 4,4 C 9,8 C 11,3 km/h (2 Bft) 98,21 %
02.04.2017 05:22 10,4 C 67 % 1011,4 hPa 0,0 l/m 7,1 km/h (2 Bft) S 190 0 min 0,000 mm 0,0 UV-I 0 W/m 4,5 C 9,9 C 11,3 km/h (2 Bft) 94,29 %
02.04.2017 05:24 10,4 C 67 % 1011,4 hPa 0,0 l/m 7,0 km/h (2 Bft) SW 224 0 min 0,000 mm 0,0 UV-I 0 W/m 4,5 C 10,0 C 9,7 km/h (2 Bft) 100,00 %
02.04.2017 05:26 10,4 C 68 % 1011,5 hPa 0,0 l/m 7,3 km/h (2 Bft) W-SW 237 0 min 0,000 mm 0,0 UV-I 0 W/m 4,8 C 9,8 C 11,3 km/h (2 Bft) 97,87 %
02.04.2017 05:28 10,4 C 68 % 1011,5 hPa 0,0 l/m 10,2 km/h (2 Bft) SW 226 0 min 0,000 mm 0,0 UV-I 0 W/m 4,8 C 7,9 C 16,1 km/h (3 Bft) 97,87 %
02.04.2017 05:30 10,4 C 68 % 1011,5 hPa 0,0 l/m 9,2 km/h (2 Bft) SW 231 0 min 0,000 mm 0,0 UV-I 0 W/m 4,8 C 8,5 C 12,9 km/h (3 Bft) 97,56 %
02.04.2017 05:32 10,3 C 69 % 1011,5 hPa 0,0 l/m 10,6 km/h (2 Bft) S-SW 213 0 min 0,000 mm 0,0 UV-I 0 W/m 4,9 C 7,6 C 16,1 km/h (3 Bft) 96,43 %
02.04.2017 05:34 10,3 C 70 % 1011,5 hPa 0,0 l/m 11,6 km/h (2 Bft) S-SW 213 0 min 0,000 mm 0,0 UV-I 0 W/m 5,1 C 7,1 C 17,7 km/h (3 Bft) 100,00 %
02.04.2017 05:36 10,3 C 70 % 1011,5 hPa 0,0 l/m 12,8 km/h (3 Bft) SW 235 0 min 0,000 mm 0,0 UV-I 0 W/m 5,1 C 6,5 C 16,1 km/h (3 Bft) 96,00 %
02.04.2017 05:38 10,3 C 70 % 1011,5 hPa 0,0 l/m 12,7 km/h (3 Bft) SW 215 0 min 0,000 mm 0,0 UV-I 0 W/m 5,1 C 6,5 C 17,7 km/h (3 Bft) 100,00 %
02.04.2017 05:40 10,4 C 70 % 1011,6 hPa 0,0 l/m 12,4 km/h (3 Bft) SW 223 0 min 0,000 mm 0,0 UV-I 0 W/m 5,2 C 6,8 C 17,7 km/h (3 Bft) 96,00 %
02.04.2017 05:42 10,4 C 71 % 1011,5 hPa 0,0 l/m 12,1 km/h (2 Bft) W-SW 249 0 min 0,000 mm 0,0 UV-I 0 W/m 5,4 C 6,9 C 16,1 km/h (3 Bft) 98,00 %
02.04.2017 05:44 10,5 C 71 % 1011,6 hPa 0,0 l/m 9,9 km/h (2 Bft) W-SW 249 0 min 0,000 mm 0,0 UV-I 0 W/m 5,5 C 8,2 C 14,5 km/h (3 Bft) 100,00 %
02.04.2017 05:46 10,6 C 71 % 1011,6 hPa 0,0 l/m 8,3 km/h (2 Bft) SW 227 0 min 0,000 mm 0,0 UV-I 0 W/m 5,6 C 9,3 C 11,3 km/h (2 Bft) 100,00 %
02.04.2017 05:48 10,6 C 71 % 1011,6 hPa 0,0 l/m 11,1 km/h (2 Bft) S-SW 211 0 min 0,000 mm 0,0 UV-I 0 W/m 5,6 C 7,7 C 14,5 km/h (3 Bft) 98,11 %
02.04.2017 05:50 10,6 C 71 % 1011,6 hPa 0,0 l/m 10,3 km/h (2 Bft) SW 234 0 min 0,000 mm 0,0 UV-I 0 W/m 5,6 C 8,1 C 14,5 km/h (3 Bft) 100,00 %
02.04.2017 05:52 10,7 C 70 % 1011,6 hPa 0,0 l/m 13,5 km/h (3 Bft) S-SW 213 0 min 0,000 mm 0,0 UV-I 0 W/m 5,5 C 6,6 C 19,3 km/h (3 Bft) 95,74 %
02.04.2017 05:54 10,8 C 70 % 1011,7 hPa 0,0 l/m 11,4 km/h (2 Bft) W-SW 242 0 min 0,000 mm 0,0 UV-I 0 W/m 5,6 C 7,7 C 19,3 km/h (3 Bft) 97,87 %
02.04.2017 05:56 10,8 C 70 % 1011,7 hPa 0,0 l/m 11,1 km/h (2 Bft) SW 234 0 min 0,000 mm 0,0 UV-I 0 W/m 5,6 C 7,9 C 16,1 km/h (3 Bft) 95,24 %
02.04.2017 05:58 10,8 C 70 % 1011,7 hPa 0,0 l/m 11,2 km/h (2 Bft) SW 233 0 min 0,000 mm 0,0 UV-I 0 W/m 5,6 C 7,8 C 14,5 km/h (3 Bft) 96,00 %
02.04.2017 06:00 10,8 C 70 % 1011,8 hPa 0,0 l/m 9,4 km/h (2 Bft) SW 233 0 min 0,025 mm 0,0 UV-I 0 W/m 5,6 C 8,8 C 14,5 km/h (3 Bft) 96,15 %
02.04.2017 06:02 10,7 C 70 % 1011,8 hPa 0,0 l/m 9,6 km/h (2 Bft) W-SW 240 0 min 0,000 mm 0,0 UV-I 0 W/m 5,5 C 8,6 C 14,5 km/h (3 Bft) 95,59 %
02.04.2017 06:04 10,7 C 71 % 1011,7 hPa 0,0 l/m 8,5 km/h (2 Bft) SW 230 0 min 0,000 mm 0,0 UV-I 0 W/m 5,7 C 9,3 C 14,5 km/h (3 Bft) 97,56 %
02.04.2017 06:06 10,7 C 71 % 1011,8 hPa 0,0 l/m 9,2 km/h (2 Bft) W-SW 247 0 min 0,000 mm 0,0 UV-I 0 W/m 5,7 C 8,8 C 14,5 km/h (3 Bft) 96,00 %
02.04.2017 06:08 10,6 C 71 % 1011,8 hPa 0,0 l/m 10,7 km/h (2 Bft) SW 228 0 min 0,000 mm 0,0 UV-I 0 W/m 5,6 C 7,9 C 16,1 km/h (3 Bft) 91,49 %
02.04.2017 06:10 10,6 C 71 % 1011,9 hPa 0,0 l/m 9,9 km/h (2 Bft) SW 229 0 min 0,000 mm 0,0 UV-I 0 W/m 5,6 C 8,3 C 16,1 km/h (3 Bft) 97,87 %
02.04.2017 06:12 10,5 C 71 % 1011,8 hPa 0,0 l/m 11,7 km/h (2 Bft) W-SW 254 0 min 0,000 mm 0,0 UV-I 0 W/m 5,5 C 7,2 C 14,5 km/h (3 Bft) 93,18 %
02.04.2017 06:14 10,5 C 72 % 1011,8 hPa 0,0 l/m 11,9 km/h (2 Bft) SW 229 0 min 0,000 mm 0,0 UV-I 0 W/m 5,7 C 7,1 C 14,5 km/h (3 Bft) 95,12 %
02.04.2017 06:16 10,4 C 72 % 1011,9 hPa 0,0 l/m 12,0 km/h (2 Bft) W-SW 247 0 min 0,000 mm 0,0 UV-I 0 W/m 5,6 C 7,0 C 17,7 km/h (3 Bft) 94,00 %
02.04.2017 06:18 10,4 C 72 % 1012,0 hPa 0,0 l/m 10,8 km/h (2 Bft) SW 222 0 min 0,000 mm 0,0 UV-I 0 W/m 5,6 C 7,6 C 14,5 km/h (3 Bft) 95,45 %
02.04.2017 06:20 10,4 C 72 % 1012,0 hPa 0,0 l/m 9,2 km/h (2 Bft) W-SW 252 0 min 0,000 mm 0,0 UV-I 0 W/m 5,6 C 8,5 C 12,9 km/h (3 Bft) 90,91 %
02.04.2017 06:22 10,4 C 72 % 1012,0 hPa 0,0 l/m 8,8 km/h (2 Bft) S-SW 207 0 min 0,000 mm 0,0 UV-I 0 W/m 5,6 C 8,8 C 12,9 km/h (3 Bft) 92,98 %
02.04.2017 06:24 10,4 C 72 % 1012,1 hPa 0,0 l/m 9,4 km/h (2 Bft) SW 232 0 min 0,000 mm 0,0 UV-I 0 W/m 5,6 C 8,4 C 14,5 km/h (3 Bft) 95,74 %
02.04.2017 06:26 10,3 C 73 % 1012,1 hPa 0,0 l/m 11,2 km/h (2 Bft) SW 233 0 min 0,000 mm 0,0 UV-I 1 W/m 5,7 C 7,3 C 14,5 km/h (3 Bft) 93,62 %
02.04.2017 06:28 10,3 C 73 % 1012,1 hPa 0,0 l/m 9,5 km/h (2 Bft) SW 215 0 min 0,000 mm 0,0 UV-I 5 W/m 5,7 C 8,2 C 14,5 km/h (3 Bft) 93,62 %
02.04.2017 06:30 10,3 C 73 % 1012,1 hPa 0,0 l/m 7,5 km/h (2 Bft) W-SW 242 0 min 0,000 mm 0,0 UV-I 5 W/m 5,7 C 9,5 C 11,3 km/h (2 Bft) 97,22 %
02.04.2017 06:32 10,3 C 73 % 1012,1 hPa 0,0 l/m 10,0 km/h (2 Bft) W 264 0 min 0,000 mm 0,0 UV-I 6 W/m 5,7 C 7,9 C 14,5 km/h (3 Bft) 93,44 %
02.04.2017 06:34 10,3 C 73 % 1012,2 hPa 0,0 l/m 9,1 km/h (2 Bft) W-SW 257 0 min 0,000 mm 0,0 UV-I 7 W/m 5,7 C 8,5 C 14,5 km/h (3 Bft) 93,33 %
02.04.2017 06:36 10,3 C 73 % 1012,1 hPa 0,0 l/m 7,4 km/h (2 Bft) SW 229 0 min 0,000 mm 0,0 UV-I 7 W/m 5,7 C 9,6 C 12,9 km/h (3 Bft) 93,18 %
02.04.2017 06:38 10,3 C 73 % 1012,2 hPa 0,0 l/m 7,4 km/h (2 Bft) SW 232 0 min 0,000 mm 0,0 UV-I 9 W/m 5,7 C 9,6 C 11,3 km/h (2 Bft) 95,12 %
02.04.2017 06:40 10,3 C 73 % 1012,2 hPa 0,0 l/m 6,7 km/h (2 Bft) W-SW 251 0 min 0,000 mm 0,0 UV-I 11 W/m 5,7 C 10,1 C 11,3 km/h (2 Bft) 96,23 %
02.04.2017 06:42 10,3 C 73 % 1012,3 hPa 0,0 l/m 7,0 km/h (2 Bft) SW 220 0 min 0,000 mm 0,0 UV-I 12 W/m 5,7 C 9,9 C 11,3 km/h (2 Bft) 90,57 %
02.04.2017 06:44 10,3 C 73 % 1012,3 hPa 0,0 l/m 6,5 km/h (2 Bft) W-SW 242 0 min 0,000 mm 0,0 UV-I 13 W/m 5,7 C 10,3 C 8,0 km/h (2 Bft) 90,91 %
02.04.2017 06:46 10,2 C 73 % 1012,4 hPa 0,0 l/m 6,5 km/h (2 Bft) SW 221 0 min 0,000 mm 0,0 UV-I 17 W/m 5,6 C 10,2 C 9,7 km/h (2 Bft) 92,11 %
02.04.2017 06:48 10,2 C 74 % 1012,4 hPa 0,0 l/m 7,4 km/h (2 Bft) SW 224 0 min 0,000 mm 0,0 UV-I 19 W/m 5,8 C 9,5 C 12,9 km/h (3 Bft) 96,23 %
02.04.2017 06:50 10,1 C 74 % 1012,5 hPa 0,0 l/m 8,4 km/h (2 Bft) SW 233 2 min 0,000 mm 0,0 UV-I 21 W/m 5,7 C 8,7 C 11,3 km/h (2 Bft) 96,00 %
02.04.2017 06:52 10,1 C 74 % 1012,5 hPa 0,0 l/m 8,0 km/h (2 Bft) SW 229 2 min 0,000 mm 0,0 UV-I 25 W/m 5,7 C 9,0 C 11,3 km/h (2 Bft) 95,12 %
02.04.2017 06:54 10,1 C 74 % 1012,6 hPa 0,0 l/m 7,2 km/h (2 Bft) W-SW 257 2 min 0,000 mm 0,0 UV-I 28 W/m 5,7 C 9,5 C 12,9 km/h (3 Bft) 94,00 %
02.04.2017 06:56 10,0 C 74 % 1012,6 hPa 0,0 l/m 8,5 km/h (2 Bft) W-SW 248 2 min 0,000 mm 0,0 UV-I 32 W/m 5,6 C 8,5 C 12,9 km/h (3 Bft) 94,00 %
02.04.2017 06:58 10,0 C 74 % 1012,6 hPa 0,0 l/m 8,9 km/h (2 Bft) SW 234 2 min 0,000 mm 0,0 UV-I 36 W/m 5,6 C 8,3 C 12,9 km/h (3 Bft) 95,12 %
02.04.2017 07:00 10,1 C 74 % 1012,6 hPa 0,0 l/m 8,6 km/h (2 Bft) SW 227 2 min 0,026 mm 0,0 UV-I 40 W/m 5,7 C 8,6 C 14,5 km/h (3 Bft) 96,00 %
02.04.2017 07:02 10,2 C 74 % 1012,6 hPa 0,0 l/m 8,6 km/h (2 Bft) W-SW 242 2 min 0,000 mm 0,0 UV-I 43 W/m 5,8 C 8,7 C 14,5 km/h (3 Bft) 90,24 %
02.04.2017 07:04 10,2 C 74 % 1012,7 hPa 0,0 l/m 8,3 km/h (2 Bft) W-SW 244 2 min 0,000 mm 0,0 UV-I 46 W/m 5,8 C 8,9 C 12,9 km/h (3 Bft) 87,23 %
02.04.2017 07:06 10,3 C 74 % 1012,7 hPa 0,0 l/m 7,9 km/h (2 Bft) SW 229 2 min 0,000 mm 0,0 UV-I 51 W/m 5,9 C 9,2 C 11,3 km/h (2 Bft) 92,00 %
02.04.2017 07:08 10,3 C 74 % 1012,7 hPa 0,0 l/m 6,7 km/h (2 Bft) W-SW 237 2 min 0,000 mm 0,0 UV-I 54 W/m 5,9 C 10,1 C 9,7 km/h (2 Bft) 94,00 %
02.04.2017 07:10 10,3 C 74 % 1012,7 hPa 0,0 l/m 8,0 km/h (2 Bft) W-SW 249 2 min 0,000 mm 0,0 UV-I 59 W/m 5,9 C 9,2 C 14,5 km/h (3 Bft) 94,00 %
02.04.2017 07:12 10,3 C 74 % 1012,7 hPa 0,0 l/m 8,5 km/h (2 Bft) W 273 2 min 0,000 mm 0,0 UV-I 63 W/m 5,9 C 8,8 C 12,9 km/h (3 Bft) 90,48 %
02.04.2017 07:14 10,3 C 74 % 1012,8 hPa 0,0 l/m 9,9 km/h (2 Bft) W-SW 250 2 min 0,000 mm 0,0 UV-I 67 W/m 5,9 C 8,0 C 14,5 km/h (3 Bft) 92,11 %
02.04.2017 07:16 10,3 C 74 % 1012,9 hPa 0,0 l/m 11,1 km/h (2 Bft) W-SW 250 2 min 0,000 mm 0,0 UV-I 69 W/m 5,9 C 7,3 C 14,5 km/h (3 Bft) 96,23 %
02.04.2017 07:18 10,4 C 74 % 1013,0 hPa 0,0 l/m 9,3 km/h (2 Bft) W-SW 251 2 min 0,000 mm 0,0 UV-I 71 W/m 6,0 C 8,4 C 14,5 km/h (3 Bft) 93,18 %
02.04.2017 07:20 10,4 C 73 % 1013,0 hPa 0,0 l/m 9,1 km/h (2 Bft) W-SW 258 2 min 0,000 mm 0,0 UV-I 70 W/m 5,8 C 8,6 C 12,9 km/h (3 Bft) 94,00 %
02.04.2017 07:22 10,5 C 73 % 1013,1 hPa 0,0 l/m 11,2 km/h (2 Bft) S-SW 213 2 min 0,000 mm 0,0 UV-I 62 W/m 5,9 C 7,5 C 17,7 km/h (3 Bft) 98,00 %
02.04.2017 07:24 10,6 C 73 % 1013,1 hPa 0,0 l/m 9,7 km/h (2 Bft) W-SW 245 0 min 0,000 mm 0,0 UV-I 53 W/m 6,0 C 8,4 C 12,9 km/h (3 Bft) 92,00 %
02.04.2017 07:26 10,7 C 72 % 1013,1 hPa 0,0 l/m 10,3 km/h (2 Bft) W 263 0 min 0,000 mm 0,0 UV-I 53 W/m 5,9 C 8,2 C 16,1 km/h (3 Bft) 100,00 %
02.04.2017 07:28 10,7 C 72 % 1013,1 hPa 0,0 l/m 8,8 km/h (2 Bft) W-SW 251 0 min 0,000 mm 0,0 UV-I 63 W/m 5,9 C 9,1 C 19,3 km/h (3 Bft) 98,11 %
02.04.2017 07:30 10,7 C 72 % 1013,2 hPa 0,0 l/m 8,2 km/h (2 Bft) SW 224 2 min 0,000 mm 0,0 UV-I 80 W/m 5,9 C 9,5 C 16,1 km/h (3 Bft) 96,00 %
02.04.2017 07:32 10,7 C 72 % 1013,2 hPa 0,0 l/m 7,7 km/h (2 Bft) W-SW 244 2 min 0,000 mm 0,0 UV-I 86 W/m 5,9 C 9,8 C 12,9 km/h (3 Bft) 90,24 %
02.04.2017 07:34 10,7 C 72 % 1013,3 hPa 0,0 l/m 9,2 km/h (2 Bft) S-SW 204 2 min 0,000 mm 0,0 UV-I 88 W/m 5,9 C 8,8 C 14,5 km/h (3 Bft) 98,00 %
02.04.2017 07:36 10,7 C 72 % 1013,3 hPa 0,0 l/m 10,4 km/h (2 Bft) W-SW 246 2 min 0,000 mm 0,0 UV-I 82 W/m 5,9 C 8,1 C 16,1 km/h (3 Bft) 96,00 %
02.04.2017 07:38 10,7 C 72 % 1013,3 hPa 0,0 l/m 9,5 km/h (2 Bft) W 268 2 min 0,000 mm 0,0 UV-I 89 W/m 5,9 C 8,7 C 14,5 km/h (3 Bft) 97,37 %
02.04.2017 07:40 10,8 C 72 % 1013,4 hPa 0,0 l/m 8,4 km/h (2 Bft) W 261 2 min 0,000 mm 0,0 UV-I 94 W/m 6,0 C 9,4 C 12,9 km/h (3 Bft) 92,45 %
02.04.2017 07:42 10,8 C 72 % 1013,4 hPa 0,0 l/m 8,3 km/h (2 Bft) W-SW 240 2 min 0,000 mm 0,0 UV-I 98 W/m 6,0 C 9,5 C 14,5 km/h (3 Bft) 96,00 %
02.04.2017 07:44 10,8 C 72 % 1013,5 hPa 0,0 l/m 8,0 km/h (2 Bft) W-SW 254 2 min 0,000 mm 0,0 UV-I 95 W/m 6,0 C 9,7 C 12,9 km/h (3 Bft) 97,73 %
02.04.2017 07:46 10,8 C 72 % 1013,6 hPa 0,0 l/m 8,4 km/h (2 Bft) SW 228 2 min 0,000 mm 0,0 UV-I 103 W/m 6,0 C 9,4 C 12,9 km/h (3 Bft) 96,00 %
02.04.2017 07:48 10,8 C 73 % 1013,7 hPa 0,0 l/m 6,8 km/h (2 Bft) W-SW 242 2 min 0,000 mm 0,0 UV-I 124 W/m 6,2 C 10,5 C 11,3 km/h (2 Bft) 91,67 %
02.04.2017 07:50 10,8 C 73 % 1013,7 hPa 0,0 l/m 7,8 km/h (2 Bft) SW 225 2 min 0,000 mm 0,0 UV-I 132 W/m 6,2 C 9,8 C 12,9 km/h (3 Bft) 98,00 %
02.04.2017 07:52 10,8 C 73 % 1013,7 hPa 0,0 l/m 8,0 km/h (2 Bft) S-SW 210 2 min 0,000 mm 0,0 UV-I 138 W/m 6,2 C 9,7 C 11,3 km/h (2 Bft) 94,23 %
02.04.2017 07:54 10,8 C 73 % 1013,8 hPa 0,0 l/m 7,6 km/h (2 Bft) S-SW 212 2 min 0,000 mm 0,0 UV-I 146 W/m 6,2 C 10,0 C 12,9 km/h (3 Bft) 100,00 %
02.04.2017 07:56 10,8 C 73 % 1013,7 hPa 0,0 l/m 8,2 km/h (2 Bft) SW 221 2 min 0,000 mm 0,0 UV-I 152 W/m 6,2 C 9,6 C 11,3 km/h (2 Bft) 92,86 %
02.04.2017 07:58 10,8 C 73 % 1013,9 hPa 0,0 l/m 7,8 km/h (2 Bft) SW 223 2 min 0,000 mm 0,0 UV-I 152 W/m 6,2 C 9,8 C 11,3 km/h (2 Bft) 97,73 %
02.04.2017 08:00 10,8 C 73 % 1013,8 hPa 0,0 l/m 7,8 km/h (2 Bft) SW 219 2 min 0,076 mm 0,0 UV-I 161 W/m 6,2 C 9,8 C 12,9 km/h (3 Bft) 97,37 %
02.04.2017 08:02 10,9 C 73 % 1013,9 hPa 0,0 l/m 6,7 km/h (2 Bft) SW 226 2 min 0,000 mm 0,0 UV-I 172 W/m 6,3 C 10,7 C 11,3 km/h (2 Bft) 90,57 %
02.04.2017 08:04 11,0 C 73 % 1013,9 hPa 0,0 l/m 6,4 km/h (2 Bft) SW 225 2 min 0,000 mm 0,0 UV-I 177 W/m 6,4 C 11,0 C 9,7 km/h (2 Bft) 97,73 %
02.04.2017 08:06 11,1 C 73 % 1014,0 hPa 0,0 l/m 5,1 km/h (1 Bft) W-SW 240 2 min 0,000 mm 0,0 UV-I 182 W/m 6,4 C 11,1 C 8,0 km/h (2 Bft) 94,34 %
02.04.2017 08:08 11,2 C 73 % 1014,0 hPa 0,0 l/m 7,6 km/h (2 Bft) W-SW 247 2 min 0,000 mm 0,0 UV-I 189 W/m 6,5 C 10,4 C 11,3 km/h (2 Bft) 94,59 %
02.04.2017 08:10 11,3 C 73 % 1014,0 hPa 0,0 l/m 6,8 km/h (2 Bft) SW 221 2 min 0,000 mm 0,0 UV-I 193 W/m 6,6 C 11,0 C 11,3 km/h (2 Bft) 85,71 %
02.04.2017 08:12 11,4 C 73 % 1014,0 hPa 0,0 l/m 8,2 km/h (2 Bft) SW 236 2 min 0,000 mm 0,0 UV-I 199 W/m 6,7 C 10,2 C 14,5 km/h (3 Bft) 90,24 %
02.04.2017 08:14 11,4 C 72 % 1014,0 hPa 0,0 l/m 10,3 km/h (2 Bft) SW 230 2 min 0,000 mm 0,0 UV-I 205 W/m 6,5 C 9,0 C 14,5 km/h (3 Bft) 93,18 %
02.04.2017 08:16 11,6 C 72 % 1014,0 hPa 0,0 l/m 9,1 km/h (2 Bft) W-SW 242 2 min 0,000 mm 0,0 UV-I 210 W/m 6,7 C 9,9 C 12,9 km/h (3 Bft) 98,00 %
02.04.2017 08:18 11,7 C 72 % 1014,0 hPa 0,0 l/m 8,8 km/h (2 Bft) SW 234 2 min 0,000 mm 0,0 UV-I 214 W/m 6,8 C 10,1 C 12,9 km/h (3 Bft) 98,21 %
02.04.2017 08:20 11,7 C 72 % 1014,1 hPa 0,0 l/m 7,6 km/h (2 Bft) SW 225 2 min 0,000 mm 0,0 UV-I 221 W/m 6,8 C 10,9 C 11,3 km/h (2 Bft) 94,74 %
02.04.2017 08:22 11,8 C 72 % 1014,2 hPa 0,0 l/m 8,8 km/h (2 Bft) W-SW 238 2 min 0,000 mm 0,0 UV-I 229 W/m 6,9 C 10,3 C 12,9 km/h (3 Bft) 96,23 %
02.04.2017 08:24 11,9 C 71 % 1014,2 hPa 0,0 l/m 8,6 km/h (2 Bft) W-SW 250 2 min 0,000 mm 0,0 UV-I 235 W/m 6,8 C 10,5 C 12,9 km/h (3 Bft) 97,37 %
02.04.2017 08:26 11,9 C 71 % 1014,2 hPa 0,0 l/m 8,7 km/h (2 Bft) SW 221 2 min 0,000 mm 0,0 UV-I 240 W/m 6,8 C 10,4 C 12,9 km/h (3 Bft) 92,86 %
02.04.2017 08:28 12,0 C 71 % 1014,3 hPa 0,0 l/m 8,2 km/h (2 Bft) SW 232 2 min 0,000 mm 0,0 UV-I 244 W/m 6,9 C 10,8 C 14,5 km/h (3 Bft) 94,74 %
02.04.2017 08:30 12,1 C 71 % 1014,3 hPa 0,0 l/m 6,3 km/h (2 Bft) SW 236 2 min 0,000 mm 0,0 UV-I 245 W/m 7,0 C 12,1 C 8,0 km/h (2 Bft) 95,83 %
02.04.2017 08:32 12,2 C 71 % 1014,3 hPa 0,0 l/m 7,8 km/h (2 Bft) SW 223 2 min 0,000 mm 0,0 UV-I 257 W/m 7,1 C 11,3 C 12,9 km/h (3 Bft) 97,96 %
02.04.2017 08:34 12,2 C 72 % 1014,3 hPa 0,0 l/m 6,2 km/h (2 Bft) SW 234 2 min 0,000 mm 0,0 UV-I 265 W/m 7,3 C 12,2 C 9,7 km/h (2 Bft) 97,44 %
02.04.2017 08:36 12,3 C 71 % 1014,3 hPa 0,0 l/m 4,9 km/h (1 Bft) W-SW 244 2 min 0,000 mm 0,0 UV-I 271 W/m 7,2 C 12,3 C 8,0 km/h (2 Bft) 97,37 %
02.04.2017 08:38 12,4 C 70 % 1014,3 hPa 0,0 l/m 7,7 km/h (2 Bft) SW 229 2 min 0,000 mm 0,2 UV-I 276 W/m 7,1 C 11,6 C 14,5 km/h (3 Bft) 98,46 %
02.04.2017 08:40 12,4 C 71 % 1014,3 hPa 0,0 l/m 9,5 km/h (2 Bft) SW 227 2 min 0,000 mm 0,5 UV-I 282 W/m 7,3 C 10,5 C 14,5 km/h (3 Bft) 94,74 %
02.04.2017 08:42 12,6 C 70 % 1014,4 hPa 0,0 l/m 9,6 km/h (2 Bft) W-SW 250 2 min 0,000 mm 0,5 UV-I 288 W/m 7,3 C 10,7 C 14,5 km/h (3 Bft) 100,00 %
02.04.2017 08:44 12,6 C 71 % 1014,4 hPa 0,0 l/m 7,4 km/h (2 Bft) SW 225 2 min 0,000 mm 0,5 UV-I 293 W/m 7,5 C 12,0 C 12,9 km/h (3 Bft) 95,12 %
02.04.2017 08:46 12,7 C 71 % 1014,5 hPa 0,0 l/m 8,5 km/h (2 Bft) W-SW 247 2 min 0,000 mm 0,5 UV-I 299 W/m 7,6 C 11,4 C 14,5 km/h (3 Bft) 100,00 %
02.04.2017 08:48 12,8 C 70 % 1014,5 hPa 0,0 l/m 9,7 km/h (2 Bft) W-SW 242 2 min 0,000 mm 0,5 UV-I 304 W/m 7,5 C 10,8 C 14,5 km/h (3 Bft) 94,74 %
02.04.2017 08:50 12,8 C 70 % 1014,4 hPa 0,0 l/m 8,5 km/h (2 Bft) SW 231 2 min 0,000 mm 0,5 UV-I 308 W/m 7,5 C 11,5 C 12,9 km/h (3 Bft) 98,11 %
02.04.2017 08:52 12,9 C 70 % 1014,5 hPa 0,0 l/m 6,8 km/h (2 Bft) W-SW 239 2 min 0,000 mm 0,6 UV-I 314 W/m 7,6 C 12,7 C 12,9 km/h (3 Bft) 95,83 %
02.04.2017 08:54 13,0 C 70 % 1014,5 hPa 0,0 l/m 6,9 km/h (2 Bft) SW 232 2 min 0,000 mm 0,6 UV-I 319 W/m 7,7 C 12,7 C 12,9 km/h (3 Bft) 95,12 %
02.04.2017 08:56 13,1 C 70 % 1014,5 hPa 0,0 l/m 7,9 km/h (2 Bft) W 259 2 min 0,000 mm 0,6 UV-I 324 W/m 7,8 C 12,2 C 12,9 km/h (3 Bft) 95,74 %
02.04.2017 08:58 13,2 C 69 % 1014,6 hPa 0,0 l/m 12,1 km/h (2 Bft) W 263 2 min 0,000 mm 0,6 UV-I 329 W/m 7,6 C 10,2 C 19,3 km/h (3 Bft) 96,43 %
02.04.2017 09:00 13,2 C 69 % 1014,5 hPa 0,0 l/m 8,0 km/h (2 Bft) W 269 2 min 0,152 mm 0,6 UV-I 336 W/m 7,6 C 12,2 C 14,5 km/h (3 Bft) 97,73 %
02.04.2017 09:02 13,2 C 69 % 1014,6 hPa 0,0 l/m 9,2 km/h (2 Bft) W-NW 286 2 min 0,000 mm 0,7 UV-I 340 W/m 7,6 C 11,5 C 16,1 km/h (3 Bft) 96,00 %
02.04.2017 09:04 13,3 C 70 % 1014,6 hPa 0,0 l/m 9,0 km/h (2 Bft) W-SW 246 2 min 0,000 mm 0,7 UV-I 346 W/m 7,9 C 11,8 C 12,9 km/h (3 Bft) 95,74 %
02.04.2017 09:06 13,3 C 68 % 1014,6 hPa 0,0 l/m 9,5 km/h (2 Bft) W-SW 248 2 min 0,000 mm 0,7 UV-I 350 W/m 7,5 C 11,5 C 14,5 km/h (3 Bft) 100,00 %
02.04.2017 09:08 13,4 C 68 % 1014,6 hPa 0,0 l/m 7,2 km/h (2 Bft) W-SW 243 2 min 0,000 mm 0,7 UV-I 357 W/m 7,6 C 12,9 C 12,9 km/h (3 Bft) 95,56 %
02.04.2017 09:10 13,4 C 68 % 1014,6 hPa 0,0 l/m 7,9 km/h (2 Bft) SW 223 2 min 0,000 mm 0,8 UV-I 362 W/m 7,6 C 12,5 C 12,9 km/h (3 Bft) 96,36 %
02.04.2017 09:12 13,5 C 68 % 1014,6 hPa 0,0 l/m 10,3 km/h (2 Bft) W 271 2 min 0,000 mm 0,8 UV-I 368 W/m 7,7 C 11,3 C 12,9 km/h (3 Bft) 94,87 %
02.04.2017 09:14 13,6 C 68 % 1014,6 hPa 0,0 l/m 12,3 km/h (3 Bft) W-SW 246 2 min 0,000 mm 0,8 UV-I 375 W/m 7,8 C 10,5 C 16,1 km/h (3 Bft) 98,11 %
02.04.2017 09:16 13,6 C 68 % 1014,7 hPa 0,0 l/m 9,0 km/h (2 Bft) W 262 2 min 0,000 mm 0,8 UV-I 379 W/m 7,8 C 12,1 C 14,5 km/h (3 Bft) 100,00 %
02.04.2017 09:18 13,7 C 68 % 1014,6 hPa 0,0 l/m 6,8 km/h (2 Bft) W-SW 250 2 min 0,000 mm 0,8 UV-I 385 W/m 7,9 C 13,5 C 12,9 km/h (3 Bft) 94,00 %
02.04.2017 09:20 13,7 C 68 % 1014,7 hPa 0,0 l/m 10,8 km/h (2 Bft) W 266 2 min 0,000 mm 0,9 UV-I 392 W/m 7,9 C 11,3 C 17,7 km/h (3 Bft) 93,62 %
02.04.2017 09:22 13,7 C 67 % 1014,7 hPa 0,0 l/m 12,1 km/h (2 Bft) SW 223 2 min 0,000 mm 0,9 UV-I 397 W/m 7,7 C 10,7 C 17,7 km/h (3 Bft) 96,00 %
02.04.2017 09:24 13,7 C 67 % 1014,7 hPa 0,0 l/m 8,2 km/h (2 Bft) W-SW 254 2 min 0,000 mm 0,9 UV-I 397 W/m 7,7 C 12,6 C 16,1 km/h (3 Bft) 94,74 %
02.04.2017 09:26 13,7 C 67 % 1014,7 hPa 0,0 l/m 10,2 km/h (2 Bft) W-SW 251 2 min 0,000 mm 0,9 UV-I 401 W/m 7,7 C 11,6 C 16,1 km/h (3 Bft) 97,87 %
02.04.2017 09:28 13,8 C 68 % 1014,8 hPa 0,0 l/m 7,9 km/h (2 Bft) W-SW 248 2 min 0,000 mm 1,0 UV-I 409 W/m 8,0 C 12,9 C 12,9 km/h (3 Bft) 92,86 %
02.04.2017 09:30 13,9 C 68 % 1014,8 hPa 0,0 l/m 10,3 km/h (2 Bft) W-SW 253 2 min 0,000 mm 1,0 UV-I 415 W/m 8,1 C 11,8 C 17,7 km/h (3 Bft) 100,00 %
02.04.2017 09:32 13,9 C 67 % 1014,8 hPa 0,0 l/m 12,5 km/h (3 Bft) W 276 2 min 0,000 mm 1,0 UV-I 424 W/m 7,9 C 10,8 C 19,3 km/h (3 Bft) 97,06 %
02.04.2017 09:34 13,9 C 68 % 1014,8 hPa 0,0 l/m 7,4 km/h (2 Bft) W-NW 298 2 min 0,000 mm 1,0 UV-I 431 W/m 8,1 C 13,3 C 12,9 km/h (3 Bft) 94,74 %
02.04.2017 09:36 13,9 C 67 % 1014,8 hPa 0,0 l/m 12,2 km/h (2 Bft) W 265 2 min 0,000 mm 1,1 UV-I 437 W/m 7,9 C 10,9 C 16,1 km/h (3 Bft) 100,00 %
02.04.2017 09:38 13,9 C 67 % 1014,8 hPa 0,0 l/m 9,2 km/h (2 Bft) W 260 2 min 0,000 mm 1,1 UV-I 443 W/m 7,9 C 12,3 C 16,1 km/h (3 Bft) 98,11 %
02.04.2017 09:40 14,0 C 68 % 1014,8 hPa 0,0 l/m 9,6 km/h (2 Bft) W-SW 244 2 min 0,000 mm 1,1 UV-I 448 W/m 8,2 C 12,2 C 16,1 km/h (3 Bft) 96,30 %
02.04.2017 09:42 14,1 C 67 % 1014,8 hPa 0,0 l/m 10,8 km/h (2 Bft) SW 233 2 min 0,000 mm 1,1 UV-I 454 W/m 8,1 C 11,8 C 16,1 km/h (3 Bft) 94,29 %
02.04.2017 09:44 14,1 C 68 % 1014,8 hPa 0,0 l/m 10,6 km/h (2 Bft) W-SW 256 2 min 0,000 mm 1,2 UV-I 460 W/m 8,3 C 11,8 C 14,5 km/h (3 Bft) 97,87 %
02.04.2017 09:46 14,3 C 67 % 1014,8 hPa 0,0 l/m 6,0 km/h (2 Bft) SW 234 2 min 0,000 mm 1,2 UV-I 466 W/m 8,3 C 14,3 C 11,3 km/h (2 Bft) 97,22 %
02.04.2017 09:48 14,4 C 67 % 1014,8 hPa 0,0 l/m 9,6 km/h (2 Bft) W-SW 253 2 min 0,000 mm 1,2 UV-I 472 W/m 8,4 C 12,6 C 16,1 km/h (3 Bft) 98,08 %
02.04.2017 09:50 14,4 C 67 % 1014,8 hPa 0,0 l/m 10,4 km/h (2 Bft) W-SW 252 2 min 0,000 mm 1,3 UV-I 476 W/m 8,4 C 12,3 C 17,7 km/h (3 Bft) 94,12 %
02.04.2017 09:52 14,4 C 66 % 1014,8 hPa 0,0 l/m 6,1 km/h (2 Bft) S-SW 208 2 min 0,000 mm 1,3 UV-I 481 W/m 8,1 C 14,4 C 11,3 km/h (2 Bft) 97,37 %
02.04.2017 09:54 14,4 C 67 % 1014,9 hPa 0,0 l/m 10,5 km/h (2 Bft) W-SW 246 2 min 0,000 mm 1,3 UV-I 486 W/m 8,4 C 12,2 C 17,7 km/h (3 Bft) 97,56 %
02.04.2017 09:56 14,5 C 66 % 1014,9 hPa 0,0 l/m 12,8 km/h (3 Bft) SW 233 2 min 0,000 mm 1,3 UV-I 490 W/m 8,2 C 11,4 C 19,3 km/h (3 Bft) 91,07 %
02.04.2017 09:58 14,4 C 66 % 1014,8 hPa 0,0 l/m 9,7 km/h (2 Bft) W 279 2 min 0,000 mm 1,3 UV-I 492 W/m 8,1 C 12,6 C 14,5 km/h (3 Bft) 92,11 %
02.04.2017 10:00 14,6 C 68 % 1014,9 hPa 0,0 l/m 3,6 km/h (1 Bft) W 266 2 min 0,254 mm 1,4 UV-I 495 W/m 8,8 C 14,6 C 6,4 km/h (2 Bft) 88,14 %
02.04.2017 10:02 14,7 C 67 % 1014,9 hPa 0,0 l/m 8,4 km/h (2 Bft) NW 306 2 min 0,000 mm 1,4 UV-I 503 W/m 8,6 C 13,6 C 12,9 km/h (3 Bft) 94,00 %
02.04.2017 10:04 14,7 C 66 % 1014,9 hPa 0,0 l/m 10,6 km/h (2 Bft) NW 325 2 min 0,000 mm 1,4 UV-I 480 W/m 8,4 C 12,5 C 16,1 km/h (3 Bft) 95,12 %
02.04.2017 10:06 14,8 C 66 % 1014,9 hPa 0,0 l/m 4,6 km/h (1 Bft) W-NW 288 2 min 0,000 mm 1,4 UV-I 513 W/m 8,5 C 14,8 C 14,5 km/h (3 Bft) 92,45 %
02.04.2017 10:08 14,8 C 66 % 1014,9 hPa 0,0 l/m 4,7 km/h (1 Bft) W 272 2 min 0,000 mm 1,5 UV-I 519 W/m 8,5 C 14,8 C 11,3 km/h (2 Bft) 93,18 %
02.04.2017 10:10 14,8 C 65 % 1014,9 hPa 0,0 l/m 7,8 km/h (2 Bft) W 276 2 min 0,000 mm 1,5 UV-I 527 W/m 8,3 C 14,0 C 12,9 km/h (3 Bft) 95,12 %
02.04.2017 10:12 14,9 C 65 % 1015,0 hPa 0,0 l/m 11,0 km/h (2 Bft) SW 233 2 min 0,000 mm 1,6 UV-I 535 W/m 8,4 C 12,6 C 17,7 km/h (3 Bft) 94,34 %
02.04.2017 10:14 14,9 C 64 % 1015,0 hPa 0,0 l/m 10,7 km/h (2 Bft) W-SW 258 2 min 0,000 mm 1,6 UV-I 538 W/m 8,2 C 12,7 C 17,7 km/h (3 Bft) 90,91 %
02.04.2017 10:16 14,9 C 64 % 1015,0 hPa 0,0 l/m 8,9 km/h (2 Bft) SW 236 2 min 0,000 mm 1,6 UV-I 538 W/m 8,2 C 13,5 C 14,5 km/h (3 Bft) 90,57 %
02.04.2017 10:18 15,1 C 64 % 1015,0 hPa 0,0 l/m 12,3 km/h (3 Bft) W 271 2 min 0,000 mm 1,6 UV-I 532 W/m 8,3 C 12,3 C 20,9 km/h (4 Bft) 90,24 %
02.04.2017 10:20 15,2 C 64 % 1015,1 hPa 0,0 l/m 15,7 km/h (3 Bft) W-SW 256 2 min 0,000 mm 1,6 UV-I 545 W/m 8,4 C 11,2 C 20,9 km/h (4 Bft) 90,91 %
02.04.2017 10:22 15,3 C 65 % 1015,1 hPa 0,0 l/m 6,8 km/h (2 Bft) W-SW 239 2 min 0,000 mm 1,7 UV-I 564 W/m 8,8 C 15,1 C 11,3 km/h (2 Bft) 92,45 %
02.04.2017 10:24 15,3 C 65 % 1015,2 hPa 0,0 l/m 5,0 km/h (1 Bft) W 279 2 min 0,000 mm 1,7 UV-I 568 W/m 8,8 C 15,3 C 11,3 km/h (2 Bft) 92,31 %
02.04.2017 10:26 15,4 C 65 % 1015,1 hPa 0,0 l/m 8,2 km/h (2 Bft) W 277 2 min 0,000 mm 1,8 UV-I 558 W/m 8,9 C 14,4 C 16,1 km/h (3 Bft) 90,38 %
02.04.2017 10:28 15,4 C 63 % 1015,2 hPa 0,0 l/m 9,0 km/h (2 Bft) W 278 2 min 0,000 mm 1,8 UV-I 563 W/m 8,4 C 14,0 C 17,7 km/h (3 Bft) 92,86 %
02.04.2017 10:30 15,4 C 64 % 1015,1 hPa 0,0 l/m 5,6 km/h (1 Bft) W-NW 302 2 min 0,000 mm 1,9 UV-I 580 W/m 8,6 C 15,4 C 9,7 km/h (2 Bft) 96,36 %
02.04.2017 10:32 15,4 C 64 % 1015,2 hPa 0,0 l/m 4,8 km/h (1 Bft) S-SO 166 2 min 0,000 mm 1,9 UV-I 584 W/m 8,6 C 15,4 C 11,3 km/h (2 Bft) 95,83 %
02.04.2017 10:34 15,6 C 65 % 1015,2 hPa 0,0 l/m 1,8 km/h (1 Bft) NW 318 2 min 0,000 mm 1,9 UV-I 590 W/m 9,0 C 15,6 C 6,4 km/h (2 Bft) 97,30 %
02.04.2017 10:36 15,5 C 65 % 1015,2 hPa 0,0 l/m 3,2 km/h (1 Bft) W-NW 292 2 min 0,000 mm 1,9 UV-I 591 W/m 8,9 C 15,5 C 6,4 km/h (2 Bft) 94,34 %
02.04.2017 10:38 15,6 C 64 % 1015,2 hPa 0,0 l/m 4,7 km/h (1 Bft) W 265 2 min 0,000 mm 2,0 UV-I 590 W/m 8,8 C 15,6 C 9,7 km/h (2 Bft) 97,56 %
02.04.2017 10:40 15,7 C 66 % 1015,2 hPa 0,0 l/m 2,5 km/h (1 Bft) W-NW 290 2 min 0,000 mm 2,0 UV-I 593 W/m 9,4 C 15,7 C 6,4 km/h (2 Bft) 96,00 %
02.04.2017 10:42 15,8 C 66 % 1015,2 hPa 0,0 l/m 4,2 km/h (1 Bft) NW 322 2 min 0,000 mm 2,1 UV-I 602 W/m 9,5 C 15,8 C 9,7 km/h (2 Bft) 98,11 %
02.04.2017 10:44 15,8 C 65 % 1015,2 hPa 0,0 l/m 3,3 km/h (1 Bft) W-NW 294 2 min 0,000 mm 2,1 UV-I 605 W/m 9,2 C 15,8 C 11,3 km/h (2 Bft) 94,74 %
02.04.2017 10:46 15,7 C 65 % 1015,2 hPa 0,0 l/m 4,7 km/h (1 Bft) N-NW 329 2 min 0,000 mm 2,1 UV-I 599 W/m 9,1 C 15,7 C 12,9 km/h (3 Bft) 95,74 %
02.04.2017 10:48 15,7 C 65 % 1015,2 hPa 0,0 l/m 9,0 km/h (2 Bft) W-SW 258 2 min 0,000 mm 2,1 UV-I 591 W/m 9,1 C 14,3 C 19,3 km/h (3 Bft) 96,00 %
02.04.2017 10:50 15,7 C 64 % 1015,2 hPa 0,0 l/m 6,4 km/h (2 Bft) W 270 2 min 0,000 mm 2,2 UV-I 601 W/m 8,9 C 15,7 C 12,9 km/h (3 Bft) 96,00 %
02.04.2017 10:52 15,7 C 64 % 1015,2 hPa 0,0 l/m 6,4 km/h (2 Bft) W 272 2 min 0,000 mm 2,2 UV-I 605 W/m 8,9 C 15,7 C 12,9 km/h (3 Bft) 97,37 %
02.04.2017 10:54 15,8 C 64 % 1015,2 hPa 0,0 l/m 5,4 km/h (1 Bft) NW 316 2 min 0,000 mm 2,2 UV-I 610 W/m 9,0 C 15,8 C 11,3 km/h (2 Bft) 96,43 %
02.04.2017 10:56 15,9 C 66 % 1015,2 hPa 0,0 l/m 3,0 km/h (1 Bft) NW 308 2 min 0,000 mm 2,2 UV-I 617 W/m 9,6 C 15,9 C 6,4 km/h (2 Bft) 97,14 %
02.04.2017 10:58 16,1 C 64 % 1015,3 hPa 0,0 l/m 3,0 km/h (1 Bft) W 260 2 min 0,000 mm 2,3 UV-I 624 W/m 9,3 C 16,1 C 9,7 km/h (2 Bft) 96,23 %
02.04.2017 11:00 16,1 C 64 % 1015,2 hPa 0,0 l/m 3,6 km/h (1 Bft) N 11 2 min 0,330 mm 2,3 UV-I 627 W/m 9,3 C 16,1 C 6,4 km/h (2 Bft) 94,00 %
02.04.2017 11:02 16,2 C 64 % 1015,2 hPa 0,0 l/m 5,5 km/h (1 Bft) W-NW 288 2 min 0,000 mm 2,4 UV-I 634 W/m 9,4 C 16,2 C 12,9 km/h (3 Bft) 98,00 %
02.04.2017 11:04 16,2 C 65 % 1015,2 hPa 0,0 l/m 5,3 km/h (1 Bft) W-NW 294 2 min 0,000 mm 2,4 UV-I 632 W/m 9,6 C 16,2 C 14,5 km/h (3 Bft) 95,74 %
02.04.2017 11:06 16,3 C 62 % 1015,3 hPa 0,0 l/m 6,0 km/h (2 Bft) W-SW 252 2 min 0,000 mm 2,4 UV-I 630 W/m 9,0 C 16,3 C 11,3 km/h (2 Bft) 95,74 %
02.04.2017 11:08 16,1 C 61 % 1015,2 hPa 0,0 l/m 9,6 km/h (2 Bft) W 267 2 min 0,000 mm 2,4 UV-I 630 W/m 8,6 C 14,5 C 16,1 km/h (3 Bft) 97,44 %
02.04.2017 11:10 15,9 C 62 % 1015,2 hPa 0,0 l/m 7,3 km/h (2 Bft) W 263 2 min 0,000 mm 2,5 UV-I 635 W/m 8,6 C 15,4 C 12,9 km/h (3 Bft) 96,23 %
02.04.2017 11:12 15,9 C 63 % 1015,2 hPa 0,0 l/m 5,2 km/h (1 Bft) W-NW 290 2 min 0,000 mm 2,5 UV-I 647 W/m 8,9 C 15,9 C 8,0 km/h (2 Bft) 100,00 %
02.04.2017 11:14 16,0 C 63 % 1015,3 hPa 0,0 l/m 7,1 km/h (2 Bft) W-SW 242 2 min 0,000 mm 2,5 UV-I 643 W/m 9,0 C 15,6 C 12,9 km/h (3 Bft) 93,62 %
02.04.2017 11:16 16,1 C 62 % 1015,3 hPa 0,0 l/m 10,5 km/h (2 Bft) W-SW 250 2 min 0,000 mm 2,5 UV-I 646 W/m 8,8 C 14,1 C 17,7 km/h (3 Bft) 97,73 %
02.04.2017 11:18 16,1 C 64 % 1015,3 hPa 0,0 l/m 6,5 km/h (2 Bft) W 266 2 min 0,000 mm 2,6 UV-I 650 W/m 9,3 C 16,1 C 12,9 km/h (3 Bft) 96,23 %
02.04.2017 11:20 16,3 C 61 % 1015,4 hPa 0,0 l/m 9,9 km/h (2 Bft) SW 231 2 min 0,000 mm 2,6 UV-I 659 W/m 8,8 C 14,6 C 16,1 km/h (3 Bft) 95,12 %
02.04.2017 11:22 16,3 C 61 % 1015,4 hPa 0,0 l/m 7,4 km/h (2 Bft) W-SW 257 2 min 0,000 mm 2,6 UV-I 665 W/m 8,8 C 15,8 C 11,3 km/h (2 Bft) 94,00 %
02.04.2017 11:24 16,3 C 61 % 1015,3 hPa 0,0 l/m 3,7 km/h (1 Bft) W 259 2 min 0,000 mm 2,7 UV-I 666 W/m 8,8 C 16,3 C 6,4 km/h (2 Bft) 100,00 %
02.04.2017 11:26 16,3 C 65 % 1015,3 hPa 0,0 l/m 2,3 km/h (1 Bft) NW 317 2 min 0,000 mm 2,7 UV-I 677 W/m 9,7 C 16,3 C 4,8 km/h (1 Bft) 98,21 %
02.04.2017 11:28 16,4 C 63 % 1015,3 hPa 0,0 l/m 2,8 km/h (1 Bft) S 187 2 min 0,000 mm 2,8 UV-I 676 W/m 9,3 C 16,4 C 6,4 km/h (2 Bft) 100,00 %
02.04.2017 11:30 16,6 C 62 % 1015,4 hPa 0,0 l/m 2,7 km/h (1 Bft) W 277 2 min 0,000 mm 2,8 UV-I 676 W/m 9,3 C 16,6 C 9,7 km/h (2 Bft) 95,12 %
02.04.2017 11:32 16,7 C 60 % 1015,3 hPa 0,0 l/m 4,4 km/h (1 Bft) SW 229 2 min 0,000 mm 2,8 UV-I 685 W/m 8,9 C 16,7 C 11,3 km/h (2 Bft) 98,00 %
02.04.2017 11:34 16,6 C 59 % 1015,4 hPa 0,0 l/m 4,9 km/h (1 Bft) W-SW 245 2 min 0,000 mm 2,8 UV-I 657 W/m 8,6 C 16,6 C 12,9 km/h (3 Bft) 100,00 %
02.04.2017 11:36 16,4 C 63 % 1015,3 hPa 0,0 l/m 0,6 km/h (0 Bft) NW 308 2 min 0,000 mm 2,7 UV-I 632 W/m 9,3 C 16,4 C 1,6 km/h (1 Bft) 96,00 %
02.04.2017 11:38 16,3 C 63 % 1015,4 hPa 0,0 l/m 3,0 km/h (1 Bft) NW 306 2 min 0,000 mm 2,7 UV-I 631 W/m 9,2 C 16,3 C 6,4 km/h (2 Bft) 100,00 %
02.04.2017 11:40 16,4 C 66 % 1015,4 hPa 0,0 l/m 2,2 km/h (1 Bft) NW 314 2 min 0,000 mm 2,9 UV-I 707 W/m 10,0 C 16,4 C 4,8 km/h (1 Bft) 95,74 %
02.04.2017 11:42 16,7 C 67 % 1015,3 hPa 0,0 l/m 1,6 km/h (1 Bft) W-NW 298 2 min 0,000 mm 3,0 UV-I 708 W/m 10,5 C 16,7 C 4,8 km/h (1 Bft) 95,45 %
02.04.2017 11:44 16,7 C 61 % 1015,3 hPa 0,0 l/m 5,5 km/h (1 Bft) W-NW 291 2 min 0,000 mm 3,0 UV-I 707 W/m 9,1 C 16,7 C 11,3 km/h (2 Bft) 96,00 %
02.04.2017 11:46 16,6 C 60 % 1015,3 hPa 0,0 l/m 6,8 km/h (2 Bft) W-SW 258 2 min 0,000 mm 3,0 UV-I 711 W/m 8,8 C 16,4 C 9,7 km/h (2 Bft) 100,00 %
02.04.2017 11:50 16,3 C 61 % 1015,4 hPa 0,0 l/m 8,9 km/h (2 Bft) W 280 4 min 0,000 mm 3,1 UV-I 708 W/m 8,8 C 15,0 C 11,3 km/h (2 Bft) 91,30 %
02.04.2017 11:52 16,4 C 62 % 1015,4 hPa 0,0 l/m 2,4 km/h (1 Bft) NW 311 2 min 0,000 mm 3,1 UV-I 709 W/m 9,1 C 16,4 C 6,4 km/h (2 Bft) 97,56 %
02.04.2017 11:54 16,6 C 64 % 1015,3 hPa 0,0 l/m 2,0 km/h (1 Bft) N-NW 329 2 min 0,000 mm 3,1 UV-I 705 W/m 9,8 C 16,6 C 6,4 km/h (2 Bft) 93,62 %
02.04.2017 11:56 16,7 C 64 % 1015,4 hPa 0,0 l/m 4,1 km/h (1 Bft) W-NW 292 2 min 0,000 mm 3,1 UV-I 706 W/m 9,9 C 16,7 C 11,3 km/h (2 Bft) 95,74 %
02.04.2017 11:58 16,8 C 63 % 1015,4 hPa 0,0 l/m 2,0 km/h (1 Bft) W-NW 299 2 min 0,000 mm 3,1 UV-I 703 W/m 9,7 C 16,8 C 8,0 km/h (2 Bft) 93,62 %
02.04.2017 12:00 17,0 C 61 % 1015,3 hPa 0,0 l/m 4,2 km/h (1 Bft) W-SW 258 2 min 0,381 mm 3,1 UV-I 700 W/m 9,4 C 17,0 C 6,4 km/h (2 Bft) 98,00 %
02.04.2017 12:02 17,2 C 62 % 1015,4 hPa 0,0 l/m 1,8 km/h (1 Bft) NW 321 2 min 0,000 mm 3,1 UV-I 709 W/m 9,9 C 17,2 C 4,8 km/h (1 Bft) 93,62 %
02.04.2017 12:04 17,1 C 62 % 1015,3 hPa 0,0 l/m 4,5 km/h (1 Bft) NO 40 2 min 0,000 mm 3,2 UV-I 719 W/m 9,8 C 17,1 C 9,7 km/h (2 Bft) 98,00 %
02.04.2017 12:06 17,2 C 60 % 1015,2 hPa 0,0 l/m 7,7 km/h (2 Bft) SW 227 2 min 0,000 mm 3,2 UV-I 722 W/m 9,4 C 16,6 C 11,3 km/h (2 Bft) 95,45 %
02.04.2017 12:08 17,2 C 59 % 1015,3 hPa 0,0 l/m 4,2 km/h (1 Bft) W-SW 245 2 min 0,000 mm 3,2 UV-I 723 W/m 9,1 C 17,2 C 8,0 km/h (2 Bft) 96,30 %
02.04.2017 12:10 17,1 C 62 % 1015,2 hPa 0,0 l/m 1,8 km/h (1 Bft) N-NW 327 2 min 0,000 mm 3,2 UV-I 724 W/m 9,8 C 17,1 C 6,4 km/h (2 Bft) 97,14 %
02.04.2017 12:12 17,3 C 62 % 1015,3 hPa 0,0 l/m 5,7 km/h (1 Bft) W-SW 248 2 min 0,000 mm 3,2 UV-I 725 W/m 9,9 C 17,3 C 11,3 km/h (2 Bft) 95,12 %
02.04.2017 12:14 17,2 C 59 % 1015,2 hPa 0,0 l/m 4,8 km/h (1 Bft) W-NW 290 2 min 0,000 mm 3,2 UV-I 724 W/m 9,1 C 17,2 C 11,3 km/h (2 Bft) 96,00 %
02.04.2017 12:16 17,2 C 60 % 1015,2 hPa 0,0 l/m 2,4 km/h (1 Bft) W-SW 247 2 min 0,000 mm 3,3 UV-I 728 W/m 9,4 C 17,2 C 4,8 km/h (1 Bft) 95,74 %
02.04.2017 12:18 17,3 C 64 % 1015,2 hPa 0,0 l/m 6,3 km/h (2 Bft) W 265 2 min 0,000 mm 3,3 UV-I 726 W/m 10,4 C 17,3 C 11,3 km/h (2 Bft) 98,00 %
02.04.2017 12:20 17,1 C 58 % 1015,2 hPa 0,0 l/m 5,5 km/h (1 Bft) W-SW 248 2 min 0,000 mm 3,3 UV-I 731 W/m 8,8 C 17,1 C 9,7 km/h (2 Bft) 100,00 %
02.04.2017 12:22 16,9 C 59 % 1015,1 hPa 0,0 l/m 2,7 km/h (1 Bft) W 259 2 min 0,000 mm 3,3 UV-I 739 W/m 8,8 C 16,9 C 8,0 km/h (2 Bft) 97,62 %
02.04.2017 12:24 17,1 C 59 % 1015,1 hPa 0,0 l/m 2,9 km/h (1 Bft) N 5 2 min 0,000 mm 3,3 UV-I 738 W/m 9,0 C 17,1 C 4,8 km/h (1 Bft) 100,00 %
02.04.2017 12:26 17,1 C 60 % 1015,1 hPa 0,0 l/m 1,5 km/h (1 Bft) W 262 2 min 0,000 mm 3,3 UV-I 738 W/m 9,3 C 17,1 C 3,2 km/h (1 Bft) 97,87 %
02.04.2017 12:28 17,3 C 58 % 1015,1 hPa 0,0 l/m 4,3 km/h (1 Bft) W 260 2 min 0,000 mm 3,4 UV-I 743 W/m 9,0 C 17,3 C 11,3 km/h (2 Bft) 100,00 %
02.04.2017 12:30 17,3 C 56 % 1015,1 hPa 0,0 l/m 4,0 km/h (1 Bft) SW 228 2 min 0,000 mm 3,4 UV-I 738 W/m 8,4 C 17,3 C 9,7 km/h (2 Bft) 98,11 %
02.04.2017 12:32 17,4 C 57 % 1015,1 hPa 0,0 l/m 5,7 km/h (1 Bft) W-NW 292 2 min 0,000 mm 3,4 UV-I 744 W/m 8,8 C 17,4 C 9,7 km/h (2 Bft) 97,87 %
02.04.2017 12:34 17,4 C 59 % 1015,0 hPa 0,0 l/m 4,9 km/h (1 Bft) W-NW 303 2 min 0,000 mm 3,4 UV-I 747 W/m 9,3 C 17,4 C 12,9 km/h (3 Bft) 100,00 %
02.04.2017 12:36 17,5 C 61 % 1015,0 hPa 0,0 l/m 4,4 km/h (1 Bft) N-NW 345 2 min 0,000 mm 3,4 UV-I 749 W/m 9,9 C 17,5 C 11,3 km/h (2 Bft) 100,00 %
02.04.2017 12:38 17,6 C 58 % 1015,0 hPa 0,0 l/m 3,8 km/h (1 Bft) NW 321 2 min 0,000 mm 3,4 UV-I 749 W/m 9,2 C 17,6 C 6,4 km/h (2 Bft) 100,00 %
02.04.2017 12:40 17,6 C 60 % 1015,1 hPa 0,0 l/m 2,5 km/h (1 Bft) NW 326 2 min 0,000 mm 3,4 UV-I 747 W/m 9,7 C 17,6 C 6,4 km/h (2 Bft) 100,00 %
02.04.2017 12:42 17,4 C 59 % 1015,0 hPa 0,0 l/m 1,0 km/h (0 Bft) NW 326 2 min 0,000 mm 3,4 UV-I 746 W/m 9,3 C 17,4 C 3,2 km/h (1 Bft) 100,00 %
02.04.2017 12:44 17,3 C 58 % 1015,0 hPa 0,0 l/m 0,4 km/h (0 Bft) NW 326 2 min 0,000 mm 3,4 UV-I 739 W/m 9,0 C 17,3 C 1,6 km/h (1 Bft) 100,00 %
02.04.2017 12:46 17,5 C 60 % 1015,0 hPa 0,0 l/m 2,4 km/h (1 Bft) W-NW 300 2 min 0,000 mm 3,4 UV-I 729 W/m 9,6 C 17,5 C 6,4 km/h (2 Bft) 100,00 %
02.04.2017 12:48 17,6 C 59 % 1015,0 hPa 0,0 l/m 6,2 km/h (2 Bft) NO 38 2 min 0,000 mm 3,4 UV-I 741 W/m 9,5 C 17,6 C 9,7 km/h (2 Bft) 98,11 %
02.04.2017 12:50 17,7 C 62 % 1015,0 hPa 0,0 l/m 4,5 km/h (1 Bft) W-NW 284 2 min 0,000 mm 3,4 UV-I 743 W/m 10,3 C 17,7 C 14,5 km/h (3 Bft) 100,00 %
02.04.2017 12:52 17,8 C 60 % 1015,0 hPa 0,0 l/m 3,8 km/h (1 Bft) N-NW 327 2 min 0,000 mm 3,4 UV-I 743 W/m 9,9 C 17,8 C 9,7 km/h (2 Bft) 98,11 %
02.04.2017 12:54 17,8 C 60 % 1015,0 hPa 0,0 l/m 4,1 km/h (1 Bft) NW 319 2 min 0,000 mm 3,4 UV-I 748 W/m 9,9 C 17,8 C 8,0 km/h (2 Bft) 97,56 %
02.04.2017 12:56 17,8 C 55 % 1015,1 hPa 0,0 l/m 1,9 km/h (1 Bft) N-NW 329 2 min 0,000 mm 3,5 UV-I 752 W/m 8,6 C 17,8 C 6,4 km/h (2 Bft) 98,00 %
02.04.2017 12:58 17,8 C 58 % 1015,1 hPa 0,0 l/m 1,9 km/h (1 Bft) NW 318 2 min 0,000 mm 3,5 UV-I 752 W/m 9,4 C 17,8 C 4,8 km/h (1 Bft) 96,00 %
02.04.2017 13:00 17,8 C 55 % 1015,1 hPa 0,0 l/m 1,5 km/h (1 Bft) NW 326 2 min 0,432 mm 3,5 UV-I 752 W/m 8,6 C 17,8 C 3,2 km/h (1 Bft) 100,00 %
02.04.2017 13:02 17,7 C 56 % 1015,1 hPa 0,0 l/m 0,9 km/h (0 Bft) W-NW 302 2 min 0,000 mm 3,5 UV-I 749 W/m 8,8 C 17,7 C 3,2 km/h (1 Bft) 98,00 %
02.04.2017 13:04 17,8 C 56 % 1015,1 hPa 0,0 l/m 1,4 km/h (1 Bft) W-NW 302 2 min 0,000 mm 3,4 UV-I 744 W/m 8,9 C 17,8 C 3,2 km/h (1 Bft) 100,00 %
02.04.2017 13:06 17,8 C 55 % 1015,0 hPa 0,0 l/m 1,8 km/h (1 Bft) N-NO 21 2 min 0,000 mm 3,4 UV-I 746 W/m 8,6 C 17,8 C 4,8 km/h (1 Bft) 96,36 %
02.04.2017 13:08 18,2 C 60 % 1015,0 hPa 0,0 l/m 3,2 km/h (1 Bft) N 355 2 min 0,000 mm 3,5 UV-I 752 W/m 10,3 C 18,2 C 6,4 km/h (2 Bft) 97,22 %
02.04.2017 13:10 18,3 C 57 % 1015,0 hPa 0,0 l/m 3,3 km/h (1 Bft) NW 317 2 min 0,000 mm 3,5 UV-I 750 W/m 9,6 C 18,3 C 8,0 km/h (2 Bft) 98,11 %
02.04.2017 13:12 18,2 C 55 % 1014,9 hPa 0,0 l/m 2,5 km/h (1 Bft) NW 306 2 min 0,000 mm 3,4 UV-I 749 W/m 9,0 C 18,2 C 8,0 km/h (2 Bft) 98,11 %
02.04.2017 13:14 18,2 C 59 % 1014,9 hPa 0,0 l/m 1,8 km/h (1 Bft) NO 54 2 min 0,000 mm 3,4 UV-I 738 W/m 10,1 C 18,2 C 4,8 km/h (1 Bft) 100,00 %
02.04.2017 13:16 18,3 C 57 % 1014,9 hPa 0,0 l/m 3,7 km/h (1 Bft) N 350 2 min 0,000 mm 3,4 UV-I 744 W/m 9,6 C 18,3 C 8,0 km/h (2 Bft) 98,11 %
02.04.2017 13:18 18,3 C 58 % 1014,9 hPa 0,0 l/m 2,4 km/h (1 Bft) NW 313 2 min 0,000 mm 3,4 UV-I 737 W/m 9,9 C 18,3 C 4,8 km/h (1 Bft) 97,73 %
02.04.2017 13:20 18,3 C 57 % 1014,9 hPa 0,0 l/m 2,7 km/h (1 Bft) N-NO 17 2 min 0,000 mm 3,4 UV-I 722 W/m 9,6 C 18,3 C 6,4 km/h (2 Bft) 100,00 %
02.04.2017 13:22 18,3 C 61 % 1014,9 hPa 0,0 l/m 2,4 km/h (1 Bft) N-NO 25 2 min 0,000 mm 3,3 UV-I 701 W/m 10,6 C 18,3 C 4,8 km/h (1 Bft) 100,00 %
02.04.2017 13:24 18,3 C 63 % 1014,9 hPa 0,0 l/m 3,3 km/h (1 Bft) N-NW 334 2 min 0,000 mm 3,3 UV-I 705 W/m 11,1 C 18,3 C 6,4 km/h (2 Bft) 97,56 %
02.04.2017 13:26 18,2 C 61 % 1014,9 hPa 0,0 l/m 2,2 km/h (1 Bft) NO 34 2 min 0,000 mm 3,2 UV-I 681 W/m 10,6 C 18,2 C 6,4 km/h (2 Bft) 100,00 %
02.04.2017 13:28 18,1 C 59 % 1014,9 hPa 0,0 l/m 0,6 km/h (0 Bft) N 349 2 min 0,000 mm 3,2 UV-I 658 W/m 10,0 C 18,1 C 3,2 km/h (1 Bft) 100,00 %
02.04.2017 13:30 18,1 C 60 % 1014,8 hPa 0,0 l/m 1,5 km/h (1 Bft) N-NO 20 2 min 0,000 mm 3,3 UV-I 698 W/m 10,2 C 18,1 C 4,8 km/h (1 Bft) 97,14 %
02.04.2017 13:32 18,3 C 57 % 1014,8 hPa 0,0 l/m 4,7 km/h (1 Bft) W 281 2 min 0,000 mm 3,2 UV-I 702 W/m 9,6 C 18,3 C 11,3 km/h (2 Bft) 94,64 %
02.04.2017 13:34 18,3 C 54 % 1014,8 hPa 0,0 l/m 2,8 km/h (1 Bft) NW 306 2 min 0,000 mm 3,2 UV-I 699 W/m 8,8 C 18,3 C 4,8 km/h (1 Bft) 96,00 %
02.04.2017 13:36 18,4 C 54 % 1014,8 hPa 0,0 l/m 5,8 km/h (2 Bft) W-SW 241 2 min 0,000 mm 3,3 UV-I 724 W/m 8,9 C 18,4 C 9,7 km/h (2 Bft) 100,00 %
02.04.2017 13:38 18,8 C 54 % 1014,8 hPa 0,0 l/m 3,6 km/h (1 Bft) N-NO 20 2 min 0,000 mm 3,3 UV-I 727 W/m 9,3 C 18,8 C 6,4 km/h (2 Bft) 98,00 %
02.04.2017 13:40 18,9 C 59 % 1014,8 hPa 0,0 l/m 3,2 km/h (1 Bft) N 355 2 min 0,000 mm 3,3 UV-I 712 W/m 10,7 C 18,9 C 8,0 km/h (2 Bft) 96,00 %
02.04.2017 13:42 18,8 C 62 % 1014,8 hPa 0,0 l/m 2,5 km/h (1 Bft) NW 316 2 min 0,000 mm 3,3 UV-I 704 W/m 11,4 C 18,8 C 6,4 km/h (2 Bft) 96,00 %
02.04.2017 13:44 18,8 C 56 % 1014,8 hPa 0,0 l/m 2,9 km/h (1 Bft) N 5 2 min 0,000 mm 3,3 UV-I 733 W/m 9,8 C 18,8 C 4,8 km/h (1 Bft) 95,24 %
02.04.2017 13:46 18,9 C 61 % 1014,8 hPa 0,0 l/m 3,1 km/h (1 Bft) N-NW 328 2 min 0,000 mm 3,4 UV-I 748 W/m 11,2 C 18,9 C 6,4 km/h (2 Bft) 98,00 %
02.04.2017 13:48 18,9 C 54 % 1014,8 hPa 0,0 l/m 3,2 km/h (1 Bft) N 349 2 min 0,000 mm 3,4 UV-I 756 W/m 9,4 C 18,9 C 6,4 km/h (2 Bft) 95,45 %
02.04.2017 13:50 18,8 C 56 % 1014,7 hPa 0,0 l/m 4,2 km/h (1 Bft) N-NO 18 2 min 0,000 mm 3,4 UV-I 750 W/m 9,8 C 18,8 C 11,3 km/h (2 Bft) 98,00 %
02.04.2017 13:52 18,7 C 57 % 1014,7 hPa 0,0 l/m 3,2 km/h (1 Bft) NW 309 2 min 0,000 mm 3,4 UV-I 743 W/m 10,0 C 18,7 C 6,4 km/h (2 Bft) 95,45 %
02.04.2017 13:54 18,7 C 55 % 1014,7 hPa 0,0 l/m 3,3 km/h (1 Bft) NW 317 2 min 0,000 mm 3,3 UV-I 749 W/m 9,5 C 18,7 C 6,4 km/h (2 Bft) 97,73 %
02.04.2017 13:56 18,7 C 61 % 1014,7 hPa 0,0 l/m 1,4 km/h (1 Bft) N 355 2 min 0,000 mm 3,3 UV-I 747 W/m 11,0 C 18,7 C 3,2 km/h (1 Bft) 94,34 %
02.04.2017 13:58 18,6 C 55 % 1014,6 hPa 0,0 l/m 1,0 km/h (0 Bft) N 355 2 min 0,000 mm 3,3 UV-I 747 W/m 9,4 C 18,6 C 3,2 km/h (1 Bft) 96,00 %
02.04.2017 14:00 18,5 C 55 % 1014,6 hPa 0,0 l/m 0,9 km/h (0 Bft) N 355 2 min 0,000 mm 3,3 UV-I 744 W/m 9,3 C 18,5 C 3,2 km/h (1 Bft) 97,37 %
02.04.2017 14:02 18,5 C 54 % 1014,6 hPa 0,0 l/m 2,2 km/h (1 Bft) N-NO 14 2 min 0,432 mm 3,3 UV-I 741 W/m 9,0 C 18,5 C 4,8 km/h (1 Bft) 94,64 %
02.04.2017 14:04 18,6 C 58 % 1014,6 hPa 0,0 l/m 1,2 km/h (1 Bft) N-NO 28 2 min 0,000 mm 3,3 UV-I 738 W/m 10,2 C 18,6 C 3,2 km/h (1 Bft) 97,14 %
02.04.2017 14:06 18,6 C 52 % 1014,5 hPa 0,0 l/m 1,4 km/h (1 Bft) O 90 2 min 0,000 mm 3,2 UV-I 736 W/m 8,5 C 18,6 C 3,2 km/h (1 Bft) 94,64 %
02.04.2017 14:08 18,6 C 53 % 1014,5 hPa 0,0 l/m 3,5 km/h (1 Bft) NO 50 2 min 0,000 mm 3,2 UV-I 734 W/m 8,8 C 18,6 C 4,8 km/h (1 Bft) 97,73 %
02.04.2017 14:10 18,8 C 57 % 1014,5 hPa 0,0 l/m 3,5 km/h (1 Bft) NO 35 2 min 0,000 mm 3,2 UV-I 709 W/m 10,1 C 18,8 C 6,4 km/h (2 Bft) 95,74 %
02.04.2017 14:12 19,1 C 58 % 1014,5 hPa 0,0 l/m 1,5 km/h (1 Bft) W-SW 242 2 min 0,000 mm 3,1 UV-I 691 W/m 10,6 C 19,1 C 4,8 km/h (1 Bft) 100,00 %
02.04.2017 14:14 19,0 C 57 % 1014,5 hPa 0,0 l/m 1,9 km/h (1 Bft) N 5 2 min 0,000 mm 3,1 UV-I 692 W/m 10,3 C 19,0 C 3,2 km/h (1 Bft) 100,00 %
02.04.2017 14:16 18,9 C 51 % 1014,5 hPa 0,0 l/m 2,3 km/h (1 Bft) N-NO 13 2 min 0,000 mm 3,1 UV-I 696 W/m 8,5 C 18,9 C 3,2 km/h (1 Bft) 100,00 %
02.04.2017 14:18 19,0 C 56 % 1014,5 hPa 0,0 l/m 5,8 km/h (2 Bft) N-NO 28 2 min 0,000 mm 3,1 UV-I 684 W/m 10,0 C 19,0 C 8,0 km/h (2 Bft) 96,43 %
02.04.2017 14:20 19,1 C 54 % 1014,5 hPa 0,0 l/m 3,8 km/h (1 Bft) NO 34 2 min 0,000 mm 3,0 UV-I 682 W/m 9,6 C 19,1 C 6,4 km/h (2 Bft) 97,50 %
02.04.2017 14:22 19,2 C 52 % 1014,5 hPa 0,0 l/m 0,6 km/h (0 Bft) NO 34 2 min 0,000 mm 3,0 UV-I 692 W/m 9,1 C 19,2 C 1,6 km/h (1 Bft) 100,00 %
02.04.2017 14:24 19,1 C 54 % 1014,5 hPa 0,0 l/m 3,3 km/h (1 Bft) N 5 2 min 0,000 mm 3,0 UV-I 675 W/m 9,6 C 19,1 C 8,0 km/h (2 Bft) 98,00 %
02.04.2017 14:26 19,2 C 57 % 1014,5 hPa 0,0 l/m 1,7 km/h (1 Bft) NW 315 2 min 0,000 mm 2,9 UV-I 670 W/m 10,5 C 19,2 C 4,8 km/h (1 Bft) 100,00 %
02.04.2017 14:28 19,0 C 51 % 1014,6 hPa 0,0 l/m 2,4 km/h (1 Bft) NO 35 2 min 0,000 mm 2,9 UV-I 664 W/m 8,6 C 19,0 C 4,8 km/h (1 Bft) 96,15 %
02.04.2017 14:30 19,0 C 50 % 1014,5 hPa 0,0 l/m 2,8 km/h (1 Bft) NO 50 2 min 0,000 mm 3,0 UV-I 726 W/m 8,3 C 19,0 C 4,8 km/h (1 Bft) 98,46 %
02.04.2017 14:32 19,1 C 54 % 1014,5 hPa 0,0 l/m 0,3 km/h (0 Bft) NO 46 2 min 0,000 mm 3,0 UV-I 721 W/m 9,6 C 19,1 C 1,6 km/h (1 Bft) 98,11 %
02.04.2017 14:34 19,4 C 48 % 1014,5 hPa 0,0 l/m 2,5 km/h (1 Bft) W-NW 297 2 min 0,000 mm 3,0 UV-I 705 W/m 8,1 C 19,4 C 6,4 km/h (2 Bft) 97,37 %
02.04.2017 14:36 19,3 C 47 % 1014,5 hPa 0,0 l/m 2,3 km/h (1 Bft) W-NW 288 2 min 0,000 mm 3,0 UV-I 700 W/m 7,7 C 19,3 C 4,8 km/h (1 Bft) 100,00 %
02.04.2017 14:38 19,3 C 49 % 1014,5 hPa 0,0 l/m 2,0 km/h (1 Bft) NW 325 2 min 0,000 mm 3,0 UV-I 695 W/m 8,3 C 19,3 C 4,8 km/h (1 Bft) 97,87 %
02.04.2017 14:40 19,2 C 48 % 1014,5 hPa 0,0 l/m 3,6 km/h (1 Bft) W 262 2 min 0,000 mm 2,9 UV-I 703 W/m 7,9 C 19,2 C 11,3 km/h (2 Bft) 100,00 %
02.04.2017 14:42 19,3 C 47 % 1014,4 hPa 0,0 l/m 4,2 km/h (1 Bft) W 273 2 min 0,000 mm 2,9 UV-I 688 W/m 7,7 C 19,3 C 6,4 km/h (2 Bft) 97,37 %
02.04.2017 14:44 19,4 C 48 % 1014,5 hPa 0,0 l/m 6,4 km/h (2 Bft) W 261 2 min 0,000 mm 2,9 UV-I 694 W/m 8,1 C 19,4 C 11,3 km/h (2 Bft) 96,00 %
02.04.2017 14:46 19,5 C 47 % 1014,5 hPa 0,0 l/m 3,2 km/h (1 Bft) O-NO 59 2 min 0,000 mm 2,9 UV-I 706 W/m 7,9 C 19,5 C 6,4 km/h (2 Bft) 100,00 %
02.04.2017 14:48 19,6 C 52 % 1014,4 hPa 0,0 l/m 2,8 km/h (1 Bft) N-NO 24 2 min 0,000 mm 2,8 UV-I 696 W/m 9,5 C 19,6 C 4,8 km/h (1 Bft) 97,37 %
02.04.2017 14:50 19,6 C 50 % 1014,5 hPa 0,0 l/m 2,1 km/h (1 Bft) N-NO 22 2 min 0,000 mm 2,8 UV-I 684 W/m 8,9 C 19,6 C 4,8 km/h (1 Bft) 98,21 %
02.04.2017 14:52 19,7 C 54 % 1014,4 hPa 0,0 l/m 2,4 km/h (1 Bft) N-NO 15 2 min 0,000 mm 2,8 UV-I 657 W/m 10,1 C 19,7 C 6,4 km/h (2 Bft) 97,87 %
02.04.2017 14:54 19,9 C 55 % 1014,4 hPa 0,0 l/m 0,9 km/h (0 Bft) N 9 2 min 0,000 mm 2,7 UV-I 655 W/m 10,6 C 19,9 C 3,2 km/h (1 Bft) 100,00 %
02.04.2017 14:56 20,0 C 52 % 1014,4 hPa 0,0 l/m 2,7 km/h (1 Bft) N 9 2 min 0,000 mm 2,7 UV-I 683 W/m 9,8 C 20,0 C 4,8 km/h (1 Bft) 97,87 %
02.04.2017 14:58 19,9 C 51 % 1014,3 hPa 0,0 l/m 0,2 km/h (0 Bft) N 9 2 min 0,000 mm 2,7 UV-I 683 W/m 9,5 C 19,9 C 1,6 km/h (1 Bft) 100,00 %
02.04.2017 15:00 20,0 C 50 % 1014,3 hPa 0,0 l/m 3,8 km/h (1 Bft) NO 50 2 min 0,000 mm 2,7 UV-I 663 W/m 9,3 C 20,0 C 6,4 km/h (2 Bft) 100,00 %
02.04.2017 15:02 19,9 C 48 % 1014,3 hPa 0,0 l/m 2,4 km/h (1 Bft) NO 48 2 min 0,406 mm 2,6 UV-I 671 W/m 8,6 C 19,9 C 4,8 km/h (1 Bft) 97,73 %
02.04.2017 15:04 19,8 C 47 % 1014,2 hPa 0,0 l/m 0,5 km/h (0 Bft) NO 48 2 min 0,000 mm 2,6 UV-I 634 W/m 8,2 C 19,8 C 3,2 km/h (1 Bft) 97,56 %
02.04.2017 15:06 20,1 C 46 % 1014,2 hPa 0,0 l/m 1,8 km/h (1 Bft) W 271 2 min 0,000 mm 2,5 UV-I 639 W/m 8,1 C 20,1 C 6,4 km/h (2 Bft) 100,00 %
02.04.2017 15:08 20,1 C 45 % 1014,2 hPa 0,0 l/m 2,6 km/h (1 Bft) W-SW 258 2 min 0,000 mm 2,5 UV-I 630 W/m 7,8 C 20,1 C 4,8 km/h (1 Bft) 97,87 %
02.04.2017 15:10 20,0 C 46 % 1014,1 hPa 0,0 l/m 7,0 km/h (2 Bft) SW 232 2 min 0,000 mm 2,5 UV-I 636 W/m 8,0 C 19,8 C 12,9 km/h (3 Bft) 97,56 %
02.04.2017 15:12 20,1 C 46 % 1014,2 hPa 0,0 l/m 3,5 km/h (1 Bft) W 273 2 min 0,000 mm 2,4 UV-I 636 W/m 8,1 C 20,1 C 6,4 km/h (2 Bft) 97,87 %
02.04.2017 15:14 20,2 C 47 % 1014,1 hPa 0,0 l/m 2,8 km/h (1 Bft) NW 320 2 min 0,000 mm 2,4 UV-I 619 W/m 8,5 C 20,2 C 4,8 km/h (1 Bft) 98,11 %
02.04.2017 15:16 20,2 C 48 % 1014,2 hPa 0,0 l/m 3,3 km/h (1 Bft) W-NW 290 2 min 0,000 mm 2,4 UV-I 613 W/m 8,8 C 20,2 C 8,0 km/h (2 Bft) 98,00 %
02.04.2017 15:18 20,2 C 46 % 1014,1 hPa 0,0 l/m 4,0 km/h (1 Bft) W 273 2 min 0,000 mm 2,4 UV-I 616 W/m 8,2 C 20,2 C 11,3 km/h (2 Bft) 95,12 %
02.04.2017 15:20 20,2 C 48 % 1014,1 hPa 0,0 l/m 6,0 km/h (2 Bft) N 349 2 min 0,000 mm 2,3 UV-I 614 W/m 8,8 C 20,2 C 17,7 km/h (3 Bft) 96,23 %
02.04.2017 15:22 20,1 C 47 % 1014,1 hPa 0,0 l/m 2,6 km/h (1 Bft) N-NW 338 2 min 0,000 mm 2,3 UV-I 622 W/m 8,4 C 20,1 C 6,4 km/h (2 Bft) 97,14 %
02.04.2017 15:24 20,0 C 46 % 1014,1 hPa 0,0 l/m 1,3 km/h (1 Bft) NW 325 2 min 0,000 mm 2,3 UV-I 621 W/m 8,0 C 20,0 C 3,2 km/h (1 Bft) 90,00 %
02.04.2017 15:26 20,2 C 48 % 1014,1 hPa 0,0 l/m 1,1 km/h (1 Bft) NO 36 2 min 0,000 mm 2,2 UV-I 613 W/m 8,8 C 20,2 C 8,0 km/h (2 Bft) 97,87 %
02.04.2017 15:28 20,2 C 48 % 1014,1 hPa 0,0 l/m 7,6 km/h (2 Bft) N-NO 26 2 min 0,000 mm 2,2 UV-I 592 W/m 8,8 C 19,7 C 12,9 km/h (3 Bft) 96,00 %
02.04.2017 15:30 20,3 C 48 % 1014,1 hPa 0,0 l/m 6,1 km/h (2 Bft) N-NO 23 2 min 0,000 mm 2,2 UV-I 597 W/m 8,9 C 20,3 C 14,5 km/h (3 Bft) 96,00 %
02.04.2017 15:32 20,3 C 41 % 1014,1 hPa 0,0 l/m 5,5 km/h (1 Bft) O-NO 60 2 min 0,000 mm 2,2 UV-I 596 W/m 6,6 C 20,3 C 9,7 km/h (2 Bft) 95,12 %
02.04.2017 15:34 20,4 C 44 % 1014,1 hPa 0,0 l/m 6,1 km/h (2 Bft) NO 55 2 min 0,000 mm 2,1 UV-I 591 W/m 7,7 C 20,4 C 9,7 km/h (2 Bft) 95,74 %
02.04.2017 15:36 20,4 C 44 % 1014,0 hPa 0,0 l/m 3,3 km/h (1 Bft) O-NO 74 2 min 0,000 mm 2,1 UV-I 589 W/m 7,7 C 20,4 C 8,0 km/h (2 Bft) 94,00 %
02.04.2017 15:38 20,4 C 41 % 1014,0 hPa 0,0 l/m 5,1 km/h (1 Bft) O-SO 119 2 min 0,000 mm 2,1 UV-I 574 W/m 6,7 C 20,4 C 6,4 km/h (2 Bft) 95,83 %
02.04.2017 15:40 20,2 C 42 % 1014,0 hPa 0,0 l/m 5,0 km/h (1 Bft) O-SO 123 2 min 0,000 mm 2,0 UV-I 552 W/m 6,9 C 20,2 C 6,4 km/h (2 Bft) 93,18 %
02.04.2017 15:42 20,1 C 40 % 1014,0 hPa 0,0 l/m 5,7 km/h (1 Bft) O-SO 103 2 min 0,000 mm 2,0 UV-I 559 W/m 6,1 C 20,1 C 12,9 km/h (3 Bft) 96,15 %
02.04.2017 15:44 19,9 C 40 % 1014,0 hPa 0,0 l/m 3,6 km/h (1 Bft) O-SO 103 2 min 0,000 mm 2,0 UV-I 565 W/m 5,9 C 19,9 C 6,4 km/h (2 Bft) 94,87 %
02.04.2017 15:46 20,0 C 40 % 1014,0 hPa 0,0 l/m 1,5 km/h (1 Bft) O-SO 103 2 min 0,000 mm 2,0 UV-I 564 W/m 6,0 C 20,0 C 4,8 km/h (1 Bft) 96,00 %
02.04.2017 15:49 20,2 C 41 % 1014,0 hPa 0,0 l/m 1,0 km/h (0 Bft) W-NW 297 3 min 0,000 mm 1,9 UV-I 554 W/m 6,5 C 20,2 C 6,4 km/h (2 Bft) 93,67 %
02.04.2017 15:50 20,2 C 41 % 1014,0 hPa 0,0 l/m 4,6 km/h (1 Bft) W 265 1 min 0,000 mm 1,9 UV-I 541 W/m 6,5 C 20,2 C 6,4 km/h (2 Bft) 100,00 %
02.04.2017 15:52 20,3 C 42 % 1014,0 hPa 0,0 l/m 1,0 km/h (0 Bft) W 275 2 min 0,000 mm 1,8 UV-I 540 W/m 7,0 C 20,3 C 4,8 km/h (1 Bft) 94,00 %
02.04.2017 15:54 20,3 C 42 % 1014,0 hPa 0,0 l/m 0,6 km/h (0 Bft) W 279 2 min 0,000 mm 1,8 UV-I 545 W/m 7,0 C 20,3 C 1,6 km/h (1 Bft) 92,11 %
02.04.2017 15:56 20,4 C 45 % 1013,9 hPa 0,0 l/m 2,1 km/h (1 Bft) N 355 2 min 0,000 mm 1,8 UV-I 535 W/m 8,1 C 20,4 C 4,8 km/h (1 Bft) 92,45 %
02.04.2017 15:58 20,3 C 43 % 1014,0 hPa 0,0 l/m 1,3 km/h (1 Bft) N 9 2 min 0,000 mm 1,7 UV-I 523 W/m 7,3 C 20,3 C 3,2 km/h (1 Bft) 93,18 %
02.04.2017 16:00 20,2 C 44 % 1013,9 hPa 0,0 l/m 6,6 km/h (2 Bft) N-NO 20 2 min 0,381 mm 1,7 UV-I 507 W/m 7,6 C 20,1 C 14,5 km/h (3 Bft) 93,18 %
02.04.2017 16:02 20,2 C 44 % 1013,9 hPa 0,0 l/m 3,3 km/h (1 Bft) N 355 2 min 0,000 mm 1,6 UV-I 485 W/m 7,6 C 20,2 C 8,0 km/h (2 Bft) 96,43 %
02.04.2017 16:04 20,1 C 47 % 1013,9 hPa 0,0 l/m 8,6 km/h (2 Bft) N-NO 21 2 min 0,000 mm 1,6 UV-I 455 W/m 8,4 C 19,2 C 12,9 km/h (3 Bft) 91,43 %
02.04.2017 16:06 19,9 C 45 % 1014,0 hPa 0,0 l/m 2,1 km/h (1 Bft) N-NO 25 2 min 0,000 mm 1,6 UV-I 472 W/m 7,6 C 19,9 C 8,0 km/h (2 Bft) 96,43 %
02.04.2017 16:08 19,9 C 46 % 1014,0 hPa 0,0 l/m 2,4 km/h (1 Bft) N-NO 25 2 min 0,000 mm 1,5 UV-I 483 W/m 7,9 C 19,9 C 4,8 km/h (1 Bft) 95,12 %
02.04.2017 16:10 20,1 C 51 % 1013,9 hPa 0,0 l/m 1,7 km/h (1 Bft) N-NO 19 2 min 0,000 mm 1,5 UV-I 473 W/m 9,6 C 20,1 C 4,8 km/h (1 Bft) 96,00 %
02.04.2017 16:12 20,1 C 45 % 1013,9 hPa 0,0 l/m 0,7 km/h (0 Bft) N-NO 19 2 min 0,000 mm 1,5 UV-I 465 W/m 7,8 C 20,1 C 3,2 km/h (1 Bft) 96,23 %
02.04.2017 16:14 20,1 C 44 % 1013,9 hPa 0,0 l/m 1,0 km/h (0 Bft) N 9 2 min 0,000 mm 1,5 UV-I 482 W/m 7,5 C 20,1 C 3,2 km/h (1 Bft) 95,74 %
02.04.2017 16:16 20,2 C 43 % 1013,9 hPa 0,0 l/m 1,8 km/h (1 Bft) N 9 2 min 0,000 mm 1,5 UV-I 479 W/m 7,2 C 20,2 C 3,2 km/h (1 Bft) 97,44 %
02.04.2017 16:18 20,3 C 42 % 1013,9 hPa 0,0 l/m 2,8 km/h (1 Bft) W-NW 298 2 min 0,000 mm 1,4 UV-I 481 W/m 7,0 C 20,3 C 4,8 km/h (1 Bft) 96,00 %
02.04.2017 16:20 20,3 C 41 % 1013,9 hPa 0,0 l/m 1,2 km/h (1 Bft) W-NW 298 2 min 0,000 mm 1,4 UV-I 467 W/m 6,6 C 20,3 C 3,2 km/h (1 Bft) 96,00 %
02.04.2017 16:22 20,4 C 49 % 1013,9 hPa 0,0 l/m 1,2 km/h (1 Bft) N-NO 25 2 min 0,000 mm 1,4 UV-I 466 W/m 9,3 C 20,4 C 4,8 km/h (1 Bft) 98,00 %
02.04.2017 16:24 20,5 C 46 % 1013,9 hPa 0,0 l/m 0,8 km/h (0 Bft) N-NO 12 2 min 0,000 mm 1,4 UV-I 458 W/m 8,5 C 20,5 C 1,6 km/h (1 Bft) 97,87 %
02.04.2017 16:26 20,6 C 43 % 1013,9 hPa 0,0 l/m 0,5 km/h (0 Bft) N-NO 12 2 min 0,000 mm 1,3 UV-I 457 W/m 7,6 C 20,6 C 3,2 km/h (1 Bft) 97,56 %
02.04.2017 16:28 20,6 C 44 % 1013,9 hPa 0,0 l/m 0,6 km/h (0 Bft) N-NO 12 2 min 0,000 mm 1,3 UV-I 447 W/m 7,9 C 20,6 C 1,6 km/h (1 Bft) 98,00 %
02.04.2017 16:30 20,6 C 41 % 1014,0 hPa 0,0 l/m 0,5 km/h (0 Bft) N-NO 12 2 min 0,000 mm 1,3 UV-I 440 W/m 6,9 C 20,6 C 1,6 km/h (1 Bft) 97,37 %
02.04.2017 16:32 20,6 C 40 % 1014,0 hPa 0,0 l/m 2,4 km/h (1 Bft) N 5 2 min 0,000 mm 1,3 UV-I 444 W/m 6,5 C 20,6 C 4,8 km/h (1 Bft) 98,11 %
02.04.2017 16:34 20,6 C 35 % 1014,0 hPa 0,0 l/m 3,4 km/h (1 Bft) O 94 2 min 0,000 mm 1,2 UV-I 429 W/m 4,6 C 20,6 C 6,4 km/h (2 Bft) 97,37 %
02.04.2017 16:36 20,8 C 37 % 1014,0 hPa 0,0 l/m 5,9 km/h (2 Bft) O 88 2 min 0,000 mm 1,2 UV-I 430 W/m 5,6 C 20,8 C 8,0 km/h (2 Bft) 96,43 %
02.04.2017 16:38 20,7 C 34 % 1014,0 hPa 0,0 l/m 4,2 km/h (1 Bft) NO 55 2 min 0,000 mm 1,2 UV-I 426 W/m 4,3 C 20,7 C 8,0 km/h (2 Bft) 100,00 %
02.04.2017 16:40 20,8 C 35 % 1014,0 hPa 0,0 l/m 5,9 km/h (2 Bft) O 91 2 min 0,000 mm 1,2 UV-I 415 W/m 4,8 C 20,8 C 8,0 km/h (2 Bft) 97,56 %
02.04.2017 16:42 20,8 C 37 % 1013,9 hPa 0,0 l/m 4,5 km/h (1 Bft) NO 55 2 min 0,000 mm 1,1 UV-I 404 W/m 5,6 C 20,8 C 6,4 km/h (2 Bft) 100,00 %
02.04.2017 16:44 20,7 C 41 % 1013,9 hPa 0,0 l/m 3,1 km/h (1 Bft) N-NO 24 2 min 0,000 mm 1,1 UV-I 399 W/m 7,0 C 20,7 C 4,8 km/h (1 Bft) 97,56 %
02.04.2017 16:46 20,6 C 42 % 1013,9 hPa 0,0 l/m 2,8 km/h (1 Bft) N-NO 16 2 min 0,000 mm 1,1 UV-I 401 W/m 7,2 C 20,6 C 8,0 km/h (2 Bft) 98,21 %
02.04.2017 16:48 20,4 C 42 % 1013,9 hPa 0,0 l/m 3,3 km/h (1 Bft) NO 37 2 min 0,000 mm 1,0 UV-I 390 W/m 7,1 C 20,4 C 6,4 km/h (2 Bft) 100,00 %
02.04.2017 16:50 20,4 C 40 % 1013,9 hPa 0,0 l/m 3,7 km/h (1 Bft) NO 37 2 min 0,000 mm 1,0 UV-I 377 W/m 6,3 C 20,4 C 6,4 km/h (2 Bft) 98,00 %
02.04.2017 16:52 20,5 C 36 % 1013,9 hPa 0,0 l/m 3,8 km/h (1 Bft) NO 37 2 min 0,000 mm 0,9 UV-I 336 W/m 4,9 C 20,5 C 4,8 km/h (1 Bft) 97,87 %
02.04.2017 16:54 20,4 C 36 % 1013,9 hPa 0,0 l/m 2,6 km/h (1 Bft) NO 37 2 min 0,000 mm 0,9 UV-I 342 W/m 4,8 C 20,4 C 3,2 km/h (1 Bft) 97,87 %
02.04.2017 16:56 20,5 C 37 % 1013,9 hPa 0,0 l/m 3,7 km/h (1 Bft) NO 36 2 min 0,000 mm 0,9 UV-I 367 W/m 5,3 C 20,5 C 6,4 km/h (2 Bft) 97,44 %
02.04.2017 16:58 20,4 C 42 % 1013,9 hPa 0,0 l/m 0,5 km/h (0 Bft) NO 36 2 min 0,000 mm 0,9 UV-I 368 W/m 7,1 C 20,4 C 3,2 km/h (1 Bft) 96,23 %
02.04.2017 17:00 20,4 C 39 % 1013,9 hPa 0,0 l/m 0,3 km/h (0 Bft) N-NO 25 2 min 0,280 mm 0,9 UV-I 344 W/m 6,0 C 20,4 C 1,6 km/h (1 Bft) 97,56 %
02.04.2017 17:02 20,5 C 39 % 1013,8 hPa 0,0 l/m 5,3 km/h (1 Bft) O 86 2 min 0,000 mm 0,9 UV-I 356 W/m 6,1 C 20,5 C 8,0 km/h (2 Bft) 100,00 %
02.04.2017 17:04 20,6 C 36 % 1013,8 hPa 0,0 l/m 4,9 km/h (1 Bft) O-NO 72 2 min 0,000 mm 0,8 UV-I 357 W/m 5,0 C 20,6 C 8,0 km/h (2 Bft) 96,00 %
02.04.2017 17:06 20,6 C 39 % 1013,9 hPa 0,0 l/m 4,3 km/h (1 Bft) NO 51 2 min 0,000 mm 0,8 UV-I 351 W/m 6,2 C 20,6 C 6,4 km/h (2 Bft) 100,00 %
02.04.2017 17:08 20,6 C 37 % 1013,9 hPa 0,0 l/m 4,2 km/h (1 Bft) NO 44 2 min 0,000 mm 0,8 UV-I 351 W/m 5,4 C 20,6 C 6,4 km/h (2 Bft) 97,87 %
02.04.2017 17:10 20,5 C 37 % 1013,8 hPa 0,0 l/m 4,4 km/h (1 Bft) O-NO 57 2 min 0,000 mm 0,8 UV-I 352 W/m 5,3 C 20,5 C 6,4 km/h (2 Bft) 100,00 %
02.04.2017 17:12 20,6 C 38 % 1013,9 hPa 0,0 l/m 5,1 km/h (1 Bft) NO 39 2 min 0,000 mm 0,8 UV-I 345 W/m 5,8 C 20,6 C 6,4 km/h (2 Bft) 100,00 %
02.04.2017 17:14 20,7 C 36 % 1013,9 hPa 0,0 l/m 4,2 km/h (1 Bft) NO 55 2 min 0,000 mm 0,7 UV-I 340 W/m 5,1 C 20,7 C 6,4 km/h (2 Bft) 97,14 %
02.04.2017 17:16 20,7 C 39 % 1013,9 hPa 0,0 l/m 3,3 km/h (1 Bft) N-NO 25 2 min 0,000 mm 0,7 UV-I 339 W/m 6,2 C 20,7 C 6,4 km/h (2 Bft) 98,11 %
02.04.2017 17:18 20,5 C 40 % 1013,9 hPa 0,0 l/m 1,7 km/h (1 Bft) N 9 2 min 0,000 mm 0,7 UV-I 308 W/m 6,4 C 20,5 C 4,8 km/h (1 Bft) 89,36 %
02.04.2017 17:20 20,3 C 40 % 1013,9 hPa 0,0 l/m 0,7 km/h (0 Bft) N 11 2 min 0,000 mm 0,7 UV-I 321 W/m 6,3 C 20,3 C 1,6 km/h (1 Bft) 96,00 %
02.04.2017 17:22 20,3 C 41 % 1013,9 hPa 0,0 l/m 2,3 km/h (1 Bft) N-NO 28 2 min 0,000 mm 0,7 UV-I 318 W/m 6,6 C 20,3 C 4,8 km/h (1 Bft) 94,00 %
02.04.2017 17:24 20,4 C 41 % 1013,9 hPa 0,0 l/m 2,4 km/h (1 Bft) NO 39 2 min 0,000 mm 0,6 UV-I 299 W/m 6,7 C 20,4 C 6,4 km/h (2 Bft) 95,12 %
02.04.2017 17:26 20,3 C 44 % 1014,0 hPa 0,0 l/m 1,2 km/h (1 Bft) N 5 2 min 0,000 mm 0,6 UV-I 279 W/m 7,6 C 20,3 C 3,2 km/h (1 Bft) 100,00 %
02.04.2017 17:28 20,1 C 44 % 1014,0 hPa 0,0 l/m 1,3 km/h (1 Bft) N 10 2 min 0,000 mm 0,6 UV-I 277 W/m 7,5 C 20,1 C 3,2 km/h (1 Bft) 95,00 %
02.04.2017 17:30 19,9 C 44 % 1014,0 hPa 0,0 l/m 0,5 km/h (0 Bft) N 10 2 min 0,000 mm 0,5 UV-I 230 W/m 7,3 C 19,9 C 1,6 km/h (1 Bft) 96,23 %
02.04.2017 17:32 19,9 C 42 % 1014,0 hPa 0,0 l/m 4,0 km/h (1 Bft) N-NO 27 2 min 0,000 mm 0,5 UV-I 203 W/m 6,6 C 19,9 C 8,0 km/h (2 Bft) 97,44 %
02.04.2017 17:34 19,9 C 40 % 1014,0 hPa 0,0 l/m 4,3 km/h (1 Bft) O-NO 63 0 min 0,000 mm 0,5 UV-I 171 W/m 5,9 C 19,9 C 6,4 km/h (2 Bft) 94,23 %
02.04.2017 17:36 20,1 C 38 % 1014,0 hPa 0,0 l/m 4,0 km/h (1 Bft) O 96 0 min 0,000 mm 0,5 UV-I 167 W/m 5,3 C 20,1 C 6,4 km/h (2 Bft) 98,00 %
02.04.2017 17:38 20,1 C 39 % 1014,0 hPa 0,0 l/m 4,3 km/h (1 Bft) O 96 2 min 0,000 mm 0,5 UV-I 205 W/m 5,7 C 20,1 C 6,4 km/h (2 Bft) 95,74 %
02.04.2017 17:40 20,2 C 36 % 1014,0 hPa 0,0 l/m 2,4 km/h (1 Bft) O 96 2 min 0,000 mm 0,4 UV-I 230 W/m 4,7 C 20,2 C 4,8 km/h (1 Bft) 94,29 %
02.04.2017 17:42 20,3 C 39 % 1014,0 hPa 0,0 l/m 3,1 km/h (1 Bft) NO 49 2 min 0,000 mm 0,0 UV-I 215 W/m 5,9 C 20,3 C 4,8 km/h (1 Bft) 94,34 %
02.04.2017 17:44 20,3 C 38 % 1014,0 hPa 0,0 l/m 5,0 km/h (1 Bft) NO 48 2 min 0,000 mm 0,0 UV-I 168 W/m 5,5 C 20,3 C 6,4 km/h (2 Bft) 93,18 %
02.04.2017 17:46 20,1 C 37 % 1014,0 hPa 0,0 l/m 3,4 km/h (1 Bft) NO 52 0 min 0,000 mm 0,0 UV-I 146 W/m 5,0 C 20,1 C 4,8 km/h (1 Bft) 98,21 %
02.04.2017 17:48 20,1 C 36 % 1014,0 hPa 0,0 l/m 2,8 km/h (1 Bft) O-NO 68 0 min 0,000 mm 0,0 UV-I 149 W/m 4,6 C 20,1 C 4,8 km/h (1 Bft) 97,37 %
02.04.2017 17:50 20,1 C 37 % 1014,0 hPa 0,0 l/m 0,9 km/h (0 Bft) O-NO 68 0 min 0,000 mm 0,0 UV-I 147 W/m 5,0 C 20,1 C 1,6 km/h (1 Bft) 96,23 %
02.04.2017 17:52 20,1 C 39 % 1014,0 hPa 0,0 l/m 1,9 km/h (1 Bft) O-NO 74 0 min 0,000 mm 0,0 UV-I 141 W/m 5,7 C 20,1 C 4,8 km/h (1 Bft) 95,12 %
02.04.2017 17:54 20,1 C 39 % 1014,0 hPa 0,0 l/m 4,8 km/h (1 Bft) O 97 0 min 0,000 mm 0,0 UV-I 130 W/m 5,7 C 20,1 C 6,4 km/h (2 Bft) 96,00 %
02.04.2017 17:56 19,9 C 39 % 1014,0 hPa 0,0 l/m 6,1 km/h (2 Bft) O-NO 67 0 min 0,000 mm 0,0 UV-I 125 W/m 5,5 C 19,9 C 8,0 km/h (2 Bft) 92,73 %
02.04.2017 17:58 19,9 C 38 % 1014,0 hPa 0,0 l/m 2,4 km/h (1 Bft) O-NO 66 0 min 0,000 mm 0,0 UV-I 125 W/m 5,2 C 19,9 C 4,8 km/h (1 Bft) 100,00 %
02.04.2017 18:00 19,9 C 39 % 1014,0 hPa 0,0 l/m 0,1 km/h (0 Bft) O-NO 66 0 min 0,178 mm 0,0 UV-I 123 W/m 5,5 C 19,9 C 1,6 km/h (1 Bft) 95,74 %
02.04.2017 18:02 19,9 C 38 % 1014,0 hPa 0,0 l/m 0,9 km/h (0 Bft) O-NO 66 0 min 0,000 mm 0,0 UV-I 113 W/m 5,2 C 19,9 C 3,2 km/h (1 Bft) 95,45 %
02.04.2017 18:04 19,9 C 40 % 1014,0 hPa 0,0 l/m 1,9 km/h (1 Bft) O-NO 66 0 min 0,000 mm 0,0 UV-I 102 W/m 5,9 C 19,9 C 3,2 km/h (1 Bft) 100,00 %
02.04.2017 18:06 19,8 C 41 % 1014,0 hPa 0,0 l/m 1,6 km/h (1 Bft) O-NO 66 0 min 0,000 mm 0,0 UV-I 99 W/m 6,2 C 19,8 C 3,2 km/h (1 Bft) 98,11 %
02.04.2017 18:08 19,8 C 39 % 1014,0 hPa 0,0 l/m 1,5 km/h (1 Bft) O-NO 66 0 min 0,000 mm 0,0 UV-I 97 W/m 5,4 C 19,8 C 3,2 km/h (1 Bft) 98,00 %
02.04.2017 18:10 19,8 C 39 % 1014,1 hPa 0,0 l/m 1,4 km/h (1 Bft) O-NO 66 0 min 0,000 mm 0,0 UV-I 97 W/m 5,4 C 19,8 C 3,2 km/h (1 Bft) 97,73 %
02.04.2017 18:12 19,8 C 40 % 1014,0 hPa 0,0 l/m 2,8 km/h (1 Bft) O-NO 66 0 min 0,000 mm 0,0 UV-I 94 W/m 5,8 C 19,8 C 4,8 km/h (1 Bft) 94,87 %
02.04.2017 18:14 19,7 C 41 % 1014,1 hPa 0,0 l/m 2,7 km/h (1 Bft) O-NO 66 0 min 0,000 mm 0,0 UV-I 88 W/m 6,1 C 19,7 C 4,8 km/h (1 Bft) 98,18 %
02.04.2017 18:16 19,6 C 41 % 1014,1 hPa 0,0 l/m 4,0 km/h (1 Bft) O 85 0 min 0,000 mm 0,0 UV-I 84 W/m 6,0 C 19,6 C 6,4 km/h (2 Bft) 100,00 %
02.04.2017 18:19 19,4 C 43 % 1014,1 hPa 0,0 l/m 3,1 km/h (1 Bft) O 85 0 min 0,000 mm 0,0 UV-I 83 W/m 6,5 C 19,4 C 4,8 km/h (1 Bft) 98,39 %
02.04.2017 18:20 19,3 C 44 % 1014,1 hPa 0,0 l/m 2,0 km/h (1 Bft) O 85 0 min 0,000 mm 0,0 UV-I 81 W/m 6,7 C 19,3 C 3,2 km/h (1 Bft) 95,83 %
02.04.2017 18:22 19,2 C 47 % 1014,2 hPa 0,0 l/m 1,8 km/h (1 Bft) O 85 0 min 0,000 mm 0,0 UV-I 80 W/m 7,6 C 19,2 C 3,2 km/h (1 Bft) 92,68 %
02.04.2017 18:24 18,9 C 47 % 1014,2 hPa 0,0 l/m 2,0 km/h (1 Bft) O 85 0 min 0,000 mm 0,0 UV-I 79 W/m 7,3 C 18,9 C 3,2 km/h (1 Bft) 96,43 %
02.04.2017 18:26 18,8 C 49 % 1014,2 hPa 0,0 l/m 1,6 km/h (1 Bft) O 85 0 min 0,000 mm 0,0 UV-I 77 W/m 7,9 C 18,8 C 3,2 km/h (1 Bft) 96,00 %
02.04.2017 18:28 18,7 C 49 % 1014,2 hPa 0,0 l/m 0,5 km/h (0 Bft) O 85 0 min 0,000 mm 0,0 UV-I 75 W/m 7,8 C 18,7 C 1,6 km/h (1 Bft) 100,00 %
02.04.2017 18:30 18,6 C 49 % 1014,2 hPa 0,0 l/m 0,5 km/h (0 Bft) O 85 0 min 0,000 mm 0,0 UV-I 72 W/m 7,7 C 18,6 C 3,2 km/h (1 Bft) 97,87 %
02.04.2017 18:32 18,3 C 50 % 1014,2 hPa 0,0 l/m 1,9 km/h (1 Bft) O 85 0 min 0,000 mm 0,0 UV-I 71 W/m 7,7 C 18,3 C 3,2 km/h (1 Bft) 100,00 %
02.04.2017 18:34 18,2 C 50 % 1014,2 hPa 0,0 l/m 2,5 km/h (1 Bft) O 85 0 min 0,000 mm 0,0 UV-I 70 W/m 7,6 C 18,2 C 4,8 km/h (1 Bft) 97,87 %
02.04.2017 18:36 18,2 C 50 % 1014,3 hPa 0,0 l/m 3,0 km/h (1 Bft) O 85 0 min 0,000 mm 0,0 UV-I 69 W/m 7,6 C 18,2 C 6,4 km/h (2 Bft) 96,23 %
02.04.2017 18:38 18,2 C 49 % 1014,3 hPa 0,0 l/m 3,0 km/h (1 Bft) O 85 0 min 0,000 mm 0,0 UV-I 65 W/m 7,3 C 18,2 C 4,8 km/h (1 Bft) 97,87 %
02.04.2017 18:40 18,2 C 48 % 1014,3 hPa 0,0 l/m 2,0 km/h (1 Bft) O 85 0 min 0,000 mm 0,0 UV-I 63 W/m 7,0 C 18,2 C 3,2 km/h (1 Bft) 98,00 %
02.04.2017 18:42 18,2 C 49 % 1014,3 hPa 0,0 l/m 1,5 km/h (1 Bft) O 85 0 min 0,000 mm 0,0 UV-I 59 W/m 7,3 C 18,2 C 4,8 km/h (1 Bft) 94,74 %
02.04.2017 18:44 18,1 C 49 % 1014,3 hPa 0,0 l/m 2,2 km/h (1 Bft) O 85 0 min 0,000 mm 0,0 UV-I 55 W/m 7,2 C 18,1 C 4,8 km/h (1 Bft) 94,64 %
02.04.2017 18:46 18,1 C 49 % 1014,3 hPa 0,0 l/m 2,0 km/h (1 Bft) O 85 0 min 0,000 mm 0,0 UV-I 52 W/m 7,2 C 18,1 C 3,2 km/h (1 Bft) 97,37 %
02.04.2017 18:48 18,1 C 49 % 1014,3 hPa 0,0 l/m 1,0 km/h (0 Bft) O 85 0 min 0,000 mm 0,0 UV-I 50 W/m 7,2 C 18,1 C 1,6 km/h (1 Bft) 98,11 %
02.04.2017 18:50 17,9 C 51 % 1014,3 hPa 0,0 l/m 1,5 km/h (1 Bft) O 85 0 min 0,000 mm 0,0 UV-I 47 W/m 7,6 C 17,9 C 3,2 km/h (1 Bft) 100,00 %
02.04.2017 18:52 17,7 C 56 % 1014,3 hPa 0,0 l/m 2,0 km/h (1 Bft) O 85 0 min 0,000 mm 0,0 UV-I 44 W/m 8,8 C 17,7 C 3,2 km/h (1 Bft) 95,74 %
02.04.2017 18:54 17,6 C 55 % 1014,3 hPa 0,0 l/m 1,8 km/h (1 Bft) O 85 0 min 0,000 mm 0,0 UV-I 42 W/m 8,5 C 17,6 C 3,2 km/h (1 Bft) 96,36 %
02.04.2017 18:56 17,4 C 57 % 1014,3 hPa 0,0 l/m 1,9 km/h (1 Bft) O 85 0 min 0,000 mm 0,0 UV-I 39 W/m 8,8 C 17,4 C 4,8 km/h (1 Bft) 92,86 %
02.04.2017 18:58 17,3 C 56 % 1014,3 hPa 0,0 l/m 2,3 km/h (1 Bft) O 85 0 min 0,000 mm 0,0 UV-I 37 W/m 8,4 C 17,3 C 4,8 km/h (1 Bft) 100,00 %
02.04.2017 19:00 17,2 C 59 % 1014,3 hPa 0,0 l/m 2,7 km/h (1 Bft) O 96 0 min 0,000 mm 0,0 UV-I 35 W/m 9,1 C 17,2 C 4,8 km/h (1 Bft) 92,68 %
02.04.2017 19:03 17,1 C 59 % 1014,3 hPa 0,0 l/m 2,2 km/h (1 Bft) O 96 0 min 0,076 mm 0,0 UV-I 32 W/m 9,0 C 17,1 C 4,8 km/h (1 Bft) 100,00 %
02.04.2017 19:04 17,0 C 59 % 1014,3 hPa 0,0 l/m 2,5 km/h (1 Bft) O 96 0 min 0,000 mm 0,0 UV-I 30 W/m 8,9 C 17,0 C 3,2 km/h (1 Bft) 100,00 %
02.04.2017 19:06 16,8 C 60 % 1014,3 hPa 0,0 l/m 3,1 km/h (1 Bft) O 98 0 min 0,000 mm 0,0 UV-I 29 W/m 9,0 C 16,8 C 4,8 km/h (1 Bft) 98,11 %
02.04.2017 19:08 16,7 C 59 % 1014,3 hPa 0,0 l/m 3,7 km/h (1 Bft) O 99 0 min 0,000 mm 0,0 UV-I 26 W/m 8,6 C 16,7 C 4,8 km/h (1 Bft) 97,56 %
02.04.2017 19:10 16,5 C 61 % 1014,4 hPa 0,0 l/m 2,4 km/h (1 Bft) O 99 0 min 0,000 mm 0,0 UV-I 26 W/m 9,0 C 16,5 C 4,8 km/h (1 Bft) 100,00 %
02.04.2017 19:12 16,4 C 61 % 1014,4 hPa 0,0 l/m 3,3 km/h (1 Bft) O 100 0 min 0,000 mm 0,0 UV-I 25 W/m 8,9 C 16,4 C 4,8 km/h (1 Bft) 96,08 %
02.04.2017 19:14 16,3 C 58 % 1014,4 hPa 0,0 l/m 3,2 km/h (1 Bft) O 100 0 min 0,000 mm 0,0 UV-I 22 W/m 8,0 C 16,3 C 4,8 km/h (1 Bft) 100,00 %
02.04.2017 19:16 16,2 C 59 % 1014,4 hPa 0,0 l/m 2,8 km/h (1 Bft) O 100 0 min 0,000 mm 0,0 UV-I 21 W/m 8,2 C 16,2 C 3,2 km/h (1 Bft) 93,62 %
02.04.2017 19:18 16,1 C 56 % 1014,5 hPa 0,0 l/m 2,5 km/h (1 Bft) O 100 0 min 0,000 mm 0,0 UV-I 19 W/m 7,3 C 16,1 C 4,8 km/h (1 Bft) 100,00 %
02.04.2017 19:20 16,1 C 55 % 1014,4 hPa 0,0 l/m 3,3 km/h (1 Bft) O-SO 122 2 min 0,000 mm 0,0 UV-I 18 W/m 7,1 C 16,1 C 6,4 km/h (2 Bft) 97,37 %
02.04.2017 19:22 16,2 C 57 % 1014,4 hPa 0,0 l/m 3,0 km/h (1 Bft) O-SO 122 2 min 0,000 mm 0,0 UV-I 16 W/m 7,7 C 16,2 C 4,8 km/h (1 Bft) 98,11 %
02.04.2017 19:24 16,2 C 57 % 1014,5 hPa 0,0 l/m 2,1 km/h (1 Bft) O-SO 122 2 min 0,000 mm 0,0 UV-I 16 W/m 7,7 C 16,2 C 3,2 km/h (1 Bft) 96,30 %
02.04.2017 19:26 16,0 C 56 % 1014,5 hPa 0,0 l/m 1,9 km/h (1 Bft) O-SO 122 0 min 0,000 mm 0,0 UV-I 16 W/m 7,2 C 16,0 C 3,2 km/h (1 Bft) 100,00 %
02.04.2017 19:28 15,8 C 59 % 1014,5 hPa 0,0 l/m 1,5 km/h (1 Bft) O-SO 122 0 min 0,000 mm 0,0 UV-I 13 W/m 7,8 C 15,8 C 3,2 km/h (1 Bft) 97,73 %
02.04.2017 19:30 15,7 C 62 % 1014,6 hPa 0,0 l/m 1,9 km/h (1 Bft) O-SO 122 0 min 0,000 mm 0,0 UV-I 12 W/m 8,4 C 15,7 C 3,2 km/h (1 Bft) 98,00 %
02.04.2017 19:32 15,5 C 62 % 1014,5 hPa 0,0 l/m 1,1 km/h (1 Bft) O-SO 121 0 min 0,000 mm 0,0 UV-I 10 W/m 8,3 C 15,5 C 4,8 km/h (1 Bft) 100,00 %
02.04.2017 19:34 15,3 C 62 % 1014,6 hPa 0,0 l/m 0,0 km/h (0 Bft) O-SO 121 0 min 0,000 mm 0,0 UV-I 9 W/m 8,1 C 15,3 C 0,0 km/h (0 Bft) 97,44 %
02.04.2017 19:36 15,3 C 62 % 1014,6 hPa 0,0 l/m 1,1 km/h (1 Bft) O-SO 121 0 min 0,000 mm 0,0 UV-I 8 W/m 8,1 C 15,3 C 3,2 km/h (1 Bft) 94,64 %
02.04.2017 19:38 15,4 C 60 % 1014,6 hPa 0,0 l/m 1,0 km/h (0 Bft) O-SO 121 0 min 0,000 mm 0,0 UV-I 7 W/m 7,7 C 15,4 C 1,6 km/h (1 Bft) 91,49 %
02.04.2017 19:40 15,5 C 59 % 1014,7 hPa 0,0 l/m 1,5 km/h (1 Bft) O-SO 121 0 min 0,000 mm 0,0 UV-I 6 W/m 7,5 C 15,5 C 3,2 km/h (1 Bft) 94,00 %
02.04.2017 19:42 15,6 C 58 % 1014,7 hPa 0,0 l/m 2,2 km/h (1 Bft) O-SO 121 0 min 0,000 mm 0,0 UV-I 5 W/m 7,4 C 15,6 C 3,2 km/h (1 Bft) 95,45 %
02.04.2017 19:44 15,6 C 60 % 1014,7 hPa 0,0 l/m 3,0 km/h (1 Bft) O-SO 121 0 min 0,000 mm 0,0 UV-I 5 W/m 7,9 C 15,6 C 4,8 km/h (1 Bft) 97,87 %
02.04.2017 19:46 15,3 C 61 % 1014,8 hPa 0,0 l/m 2,3 km/h (1 Bft) O-SO 121 0 min 0,000 mm 0,0 UV-I 5 W/m 7,8 C 15,3 C 3,2 km/h (1 Bft) 87,80 %
02.04.2017 19:48 15,1 C 61 % 1014,8 hPa 0,0 l/m 2,4 km/h (1 Bft) O-SO 121 0 min 0,000 mm 0,0 UV-I 0 W/m 7,6 C 15,1 C 3,2 km/h (1 Bft) 94,34 %
02.04.2017 19:50 15,0 C 61 % 1014,8 hPa 0,0 l/m 3,0 km/h (1 Bft) O-SO 121 0 min 0,000 mm 0,0 UV-I 0 W/m 7,5 C 15,0 C 4,8 km/h (1 Bft) 94,00 %
02.04.2017 19:52 15,1 C 61 % 1014,9 hPa 0,0 l/m 3,3 km/h (1 Bft) O-SO 122 0 min 0,000 mm 0,0 UV-I 0 W/m 7,6 C 15,1 C 4,8 km/h (1 Bft) 91,67 %
02.04.2017 19:54 15,1 C 60 % 1014,9 hPa 0,0 l/m 3,6 km/h (1 Bft) O-SO 122 0 min 0,000 mm 0,0 UV-I 0 W/m 7,4 C 15,1 C 4,8 km/h (1 Bft) 90,57 %
02.04.2017 19:56 15,1 C 61 % 1014,9 hPa 0,0 l/m 3,3 km/h (1 Bft) O-SO 122 0 min 0,000 mm 0,0 UV-I 0 W/m 7,6 C 15,1 C 4,8 km/h (1 Bft) 92,00 %
02.04.2017 19:58 14,9 C 62 % 1015,0 hPa 0,0 l/m 3,2 km/h (1 Bft) O-SO 122 0 min 0,000 mm 0,0 UV-I 0 W/m 7,7 C 14,9 C 4,8 km/h (1 Bft) 87,80 %
02.04.2017 20:00 14,8 C 63 % 1015,0 hPa 0,0 l/m 3,3 km/h (1 Bft) O-SO 123 0 min 0,025 mm 0,0 UV-I 0 W/m 7,8 C 14,8 C 4,8 km/h (1 Bft) 94,34 %
02.04.2017 20:03 14,6 C 64 % 1015,0 hPa 0,0 l/m 3,4 km/h (1 Bft) SO 129 0 min 0,000 mm 0,0 UV-I 0 W/m 7,9 C 14,6 C 4,8 km/h (1 Bft) 94,52 %
02.04.2017 20:04 14,5 C 64 % 1015,0 hPa 0,0 l/m 3,4 km/h (1 Bft) SO 129 0 min 0,000 mm 0,0 UV-I 0 W/m 7,8 C 14,5 C 4,8 km/h (1 Bft) 83,33 %
02.04.2017 20:06 14,4 C 65 % 1015,0 hPa 0,0 l/m 2,8 km/h (1 Bft) SO 129 0 min 0,000 mm 0,0 UV-I 0 W/m 7,9 C 14,4 C 3,2 km/h (1 Bft) 88,00 %
02.04.2017 20:08 14,3 C 65 % 1015,1 hPa 0,0 l/m 2,3 km/h (1 Bft) SO 129 0 min 0,000 mm 0,0 UV-I 0 W/m 7,8 C 14,3 C 3,2 km/h (1 Bft) 93,62 %
02.04.2017 20:10 14,1 C 65 % 1015,1 hPa 0,0 l/m 1,8 km/h (1 Bft) SO 129 0 min 0,000 mm 0,0 UV-I 0 W/m 7,6 C 14,1 C 3,2 km/h (1 Bft) 94,34 %
02.04.2017 20:12 14,0 C 65 % 1015,1 hPa 0,0 l/m 2,5 km/h (1 Bft) SO 129 0 min 0,000 mm 0,0 UV-I 0 W/m 7,5 C 14,0 C 3,2 km/h (1 Bft) 97,14 %
02.04.2017 20:14 14,0 C 64 % 1015,1 hPa 0,0 l/m 2,1 km/h (1 Bft) SO 129 0 min 0,000 mm 0,0 UV-I 0 W/m 7,3 C 14,0 C 3,2 km/h (1 Bft) 94,00 %
02.04.2017 20:16 14,0 C 64 % 1015,1 hPa 0,0 l/m 2,1 km/h (1 Bft) SO 129 0 min 0,000 mm 0,0 UV-I 0 W/m 7,3 C 14,0 C 3,2 km/h (1 Bft) 98,11 %
02.04.2017 20:18 13,9 C 65 % 1015,1 hPa 0,0 l/m 2,9 km/h (1 Bft) SO 129 0 min 0,000 mm 0,0 UV-I 0 W/m 7,4 C 13,9 C 3,2 km/h (1 Bft) 93,62 %
02.04.2017 20:20 13,9 C 65 % 1015,1 hPa 0,0 l/m 3,5 km/h (1 Bft) SO 129 0 min 0,000 mm 0,0 UV-I 0 W/m 7,4 C 13,9 C 4,8 km/h (1 Bft) 95,74 %
02.04.2017 20:22 13,8 C 65 % 1015,1 hPa 0,0 l/m 3,1 km/h (1 Bft) SO 129 0 min 0,000 mm 0,0 UV-I 0 W/m 7,3 C 13,8 C 4,8 km/h (1 Bft) 96,00 %
02.04.2017 20:24 13,7 C 64 % 1015,2 hPa 0,0 l/m 2,2 km/h (1 Bft) SO 129 0 min 0,000 mm 0,0 UV-I 0 W/m 7,0 C 13,7 C 3,2 km/h (1 Bft) 97,73 %
02.04.2017 20:26 13,6 C 63 % 1015,2 hPa 0,0 l/m 2,8 km/h (1 Bft) SO 129 0 min 0,000 mm 0,0 UV-I 0 W/m 6,7 C 13,6 C 3,2 km/h (1 Bft) 93,62 %
02.04.2017 20:28 13,7 C 63 % 1015,2 hPa 0,0 l/m 3,0 km/h (1 Bft) SO 129 0 min 0,000 mm 0,0 UV-I 0 W/m 6,8 C 13,7 C 4,8 km/h (1 Bft) 95,12 %
02.04.2017 20:30 13,7 C 63 % 1015,2 hPa 0,0 l/m 2,9 km/h (1 Bft) SO 129 0 min 0,000 mm 0,0 UV-I 0 W/m 6,8 C 13,7 C 4,8 km/h (1 Bft) 93,75 %
02.04.2017 20:32 13,7 C 63 % 1015,3 hPa 0,0 l/m 2,8 km/h (1 Bft) SO 129 0 min 0,000 mm 0,0 UV-I 0 W/m 6,8 C 13,7 C 4,8 km/h (1 Bft) 94,23 %
02.04.2017 20:34 13,7 C 63 % 1015,3 hPa 0,0 l/m 2,5 km/h (1 Bft) SO 129 0 min 0,000 mm 0,0 UV-I 0 W/m 6,8 C 13,7 C 3,2 km/h (1 Bft) 94,44 %
02.04.2017 20:36 13,7 C 63 % 1015,3 hPa 0,0 l/m 1,3 km/h (1 Bft) SO 129 0 min 0,000 mm 0,0 UV-I 0 W/m 6,8 C 13,7 C 3,2 km/h (1 Bft) 92,16 %
02.04.2017 20:38 13,6 C 64 % 1015,3 hPa 0,0 l/m 0,8 km/h (0 Bft) SO 129 0 min 0,000 mm 0,0 UV-I 0 W/m 6,9 C 13,6 C 1,6 km/h (1 Bft) 96,43 %
02.04.2017 20:40 13,4 C 63 % 1015,3 hPa 0,0 l/m 0,8 km/h (0 Bft) SO 129 0 min 0,000 mm 0,0 UV-I 0 W/m 6,5 C 13,4 C 1,6 km/h (1 Bft) 92,31 %
02.04.2017 20:42 13,4 C 63 % 1015,3 hPa 0,0 l/m 0,7 km/h (0 Bft) SO 129 0 min 0,000 mm 0,0 UV-I 0 W/m 6,5 C 13,4 C 1,6 km/h (1 Bft) 96,92 %
02.04.2017 20:44 13,3 C 64 % 1015,4 hPa 0,0 l/m 0,4 km/h (0 Bft) SO 129 0 min 0,000 mm 0,0 UV-I 0 W/m 6,6 C 13,3 C 1,6 km/h (1 Bft) 92,11 %
02.04.2017 20:46 13,2 C 65 % 1015,4 hPa 0,0 l/m 0,9 km/h (0 Bft) SO 129 0 min 0,000 mm 0,0 UV-I 0 W/m 6,8 C 13,2 C 1,6 km/h (1 Bft) 94,00 %
02.04.2017 20:48 13,2 C 64 % 1015,4 hPa 0,0 l/m 1,9 km/h (1 Bft) SO 129 0 min 0,000 mm 0,0 UV-I 0 W/m 6,5 C 13,2 C 3,2 km/h (1 Bft) 97,87 %
02.04.2017 20:50 13,3 C 64 % 1015,5 hPa 0,0 l/m 3,2 km/h (1 Bft) SO 129 0 min 0,000 mm 0,0 UV-I 0 W/m 6,6 C 13,3 C 4,8 km/h (1 Bft) 97,37 %
02.04.2017 20:52 13,3 C 63 % 1015,5 hPa 0,0 l/m 3,5 km/h (1 Bft) SO 129 0 min 0,000 mm 0,0 UV-I 0 W/m 6,4 C 13,3 C 4,8 km/h (1 Bft) 96,43 %
02.04.2017 20:54 13,4 C 64 % 1015,5 hPa 0,0 l/m 4,9 km/h (1 Bft) S 172 0 min 0,000 mm 0,0 UV-I 0 W/m 6,7 C 13,4 C 6,4 km/h (2 Bft) 96,23 %
02.04.2017 20:56 13,3 C 64 % 1015,6 hPa 0,0 l/m 4,7 km/h (1 Bft) S 173 0 min 0,000 mm 0,0 UV-I 0 W/m 6,6 C 13,3 C 8,0 km/h (2 Bft) 95,74 %
02.04.2017 20:58 13,1 C 65 % 1015,6 hPa 0,0 l/m 4,8 km/h (1 Bft) S 174 0 min 0,000 mm 0,0 UV-I 0 W/m 6,7 C 13,1 C 8,0 km/h (2 Bft) 95,74 %
02.04.2017 21:00 13,0 C 66 % 1015,6 hPa 0,0 l/m 4,1 km/h (1 Bft) S 174 0 min 0,000 mm 0,0 UV-I 0 W/m 6,8 C 13,0 C 4,8 km/h (1 Bft) 97,37 %
02.04.2017 21:03 12,9 C 66 % 1015,7 hPa 0,0 l/m 3,4 km/h (1 Bft) S 174 0 min 0,026 mm 0,0 UV-I 0 W/m 6,7 C 12,9 C 8,0 km/h (2 Bft) 98,59 %
02.04.2017 21:04 12,9 C 66 % 1015,7 hPa 0,0 l/m 2,6 km/h (1 Bft) S 174 0 min 0,000 mm 0,0 UV-I 0 W/m 6,7 C 12,9 C 3,2 km/h (1 Bft) 92,31 %
02.04.2017 21:06 12,9 C 66 % 1015,7 hPa 0,0 l/m 2,5 km/h (1 Bft) S 174 0 min 0,000 mm 0,0 UV-I 0 W/m 6,7 C 12,9 C 3,2 km/h (1 Bft) 100,00 %
02.04.2017 21:08 12,9 C 66 % 1015,6 hPa 0,0 l/m 2,8 km/h (1 Bft) S 174 0 min 0,000 mm 0,0 UV-I 0 W/m 6,7 C 12,9 C 3,2 km/h (1 Bft) 96,00 %
02.04.2017 21:10 12,9 C 66 % 1015,7 hPa 0,0 l/m 2,7 km/h (1 Bft) S 174 0 min 0,000 mm 0,0 UV-I 0 W/m 6,7 C 12,9 C 4,8 km/h (1 Bft) 97,44 %
02.04.2017 21:12 12,7 C 67 % 1015,7 hPa 0,0 l/m 3,3 km/h (1 Bft) S 174 0 min 0,000 mm 0,0 UV-I 0 W/m 6,7 C 12,7 C 4,8 km/h (1 Bft) 98,21 %
02.04.2017 21:14 12,6 C 67 % 1015,7 hPa 0,0 l/m 3,4 km/h (1 Bft) S 174 0 min 0,000 mm 0,0 UV-I 0 W/m 6,6 C 12,6 C 4,8 km/h (1 Bft) 98,00 %
02.04.2017 21:16 12,5 C 68 % 1015,7 hPa 0,0 l/m 3,0 km/h (1 Bft) S 174 0 min 0,000 mm 0,0 UV-I 0 W/m 6,8 C 12,5 C 4,8 km/h (1 Bft) 97,87 %
02.04.2017 21:18 12,4 C 68 % 1015,8 hPa 0,0 l/m 2,5 km/h (1 Bft) S 174 0 min 0,000 mm 0,0 UV-I 0 W/m 6,7 C 12,4 C 3,2 km/h (1 Bft) 100,00 %
02.04.2017 21:20 12,4 C 68 % 1015,8 hPa 0,0 l/m 2,3 km/h (1 Bft) S 174 0 min 0,000 mm 0,0 UV-I 0 W/m 6,7 C 12,4 C 3,2 km/h (1 Bft) 94,00 %
02.04.2017 21:22 12,3 C 69 % 1015,8 hPa 0,0 l/m 2,3 km/h (1 Bft) S 173 0 min 0,000 mm 0,0 UV-I 0 W/m 6,8 C 12,3 C 3,2 km/h (1 Bft) 100,00 %
02.04.2017 21:24 12,3 C 68 % 1015,8 hPa 0,0 l/m 2,1 km/h (1 Bft) S 173 0 min 0,000 mm 0,0 UV-I 0 W/m 6,6 C 12,3 C 3,2 km/h (1 Bft) 97,56 %
02.04.2017 21:26 12,4 C 68 % 1015,8 hPa 0,0 l/m 2,3 km/h (1 Bft) S 173 0 min 0,000 mm 0,0 UV-I 0 W/m 6,7 C 12,4 C 3,2 km/h (1 Bft) 98,11 %
02.04.2017 21:28 12,6 C 67 % 1015,8 hPa 0,0 l/m 2,1 km/h (1 Bft) S 173 0 min 0,000 mm 0,0 UV-I 0 W/m 6,6 C 12,6 C 3,2 km/h (1 Bft) 100,00 %
02.04.2017 21:30 12,7 C 67 % 1015,9 hPa 0,0 l/m 2,1 km/h (1 Bft) S 173 0 min 0,000 mm 0,0 UV-I 0 W/m 6,7 C 12,7 C 4,8 km/h (1 Bft) 97,87 %
02.04.2017 21:32 12,7 C 67 % 1015,9 hPa 0,0 l/m 2,6 km/h (1 Bft) S 173 0 min 0,000 mm 0,0 UV-I 0 W/m 6,7 C 12,7 C 4,8 km/h (1 Bft) 98,00 %
02.04.2017 21:34 12,8 C 65 % 1015,9 hPa 0,0 l/m 3,2 km/h (1 Bft) S 173 0 min 0,000 mm 0,0 UV-I 0 W/m 6,4 C 12,8 C 4,8 km/h (1 Bft) 100,00 %
02.04.2017 21:36 12,9 C 65 % 1015,9 hPa 0,0 l/m 3,1 km/h (1 Bft) S 173 0 min 0,000 mm 0,0 UV-I 0 W/m 6,5 C 12,9 C 4,8 km/h (1 Bft) 97,37 %
02.04.2017 21:38 12,9 C 65 % 1015,9 hPa 0,0 l/m 3,0 km/h (1 Bft) S 173 0 min 0,000 mm 0,0 UV-I 0 W/m 6,5 C 12,9 C 4,8 km/h (1 Bft) 95,74 %
02.04.2017 21:40 12,8 C 66 % 1015,9 hPa 0,0 l/m 3,1 km/h (1 Bft) S 173 0 min 0,000 mm 0,0 UV-I 0 W/m 6,6 C 12,8 C 4,8 km/h (1 Bft) 100,00 %
02.04.2017 21:42 12,6 C 67 % 1016,0 hPa 0,0 l/m 3,9 km/h (1 Bft) S 174 0 min 0,000 mm 0,0 UV-I 0 W/m 6,6 C 12,6 C 4,8 km/h (1 Bft) 98,00 %
02.04.2017 21:44 12,4 C 69 % 1015,9 hPa 0,0 l/m 5,3 km/h (1 Bft) S 177 0 min 0,000 mm 0,0 UV-I 0 W/m 6,9 C 12,4 C 8,0 km/h (2 Bft) 100,00 %
02.04.2017 21:46 12,2 C 69 % 1015,9 hPa 0,0 l/m 4,0 km/h (1 Bft) S 177 0 min 0,000 mm 0,0 UV-I 0 W/m 6,7 C 12,2 C 6,4 km/h (2 Bft) 94,00 %
02.04.2017 21:48 12,2 C 68 % 1015,9 hPa 0,0 l/m 4,9 km/h (1 Bft) S 177 0 min 0,000 mm 0,0 UV-I 0 W/m 6,5 C 12,2 C 6,4 km/h (2 Bft) 100,00 %
02.04.2017 21:50 12,3 C 68 % 1016,0 hPa 0,0 l/m 3,8 km/h (1 Bft) S 177 0 min 0,000 mm 0,0 UV-I 0 W/m 6,6 C 12,3 C 6,4 km/h (2 Bft) 98,11 %
02.04.2017 21:52 12,4 C 68 % 1016,0 hPa 0,0 l/m 2,7 km/h (1 Bft) S 177 0 min 0,000 mm 0,0 UV-I 0 W/m 6,7 C 12,4 C 4,8 km/h (1 Bft) 100,00 %
02.04.2017 21:54 12,5 C 68 % 1016,0 hPa 0,0 l/m 2,1 km/h (1 Bft) S 177 0 min 0,000 mm 0,0 UV-I 0 W/m 6,8 C 12,5 C 3,2 km/h (1 Bft) 100,00 %
02.04.2017 21:56 12,4 C 68 % 1016,1 hPa 0,0 l/m 2,6 km/h (1 Bft) S 176 0 min 0,000 mm 0,0 UV-I 0 W/m 6,7 C 12,4 C 3,2 km/h (1 Bft) 95,12 %
02.04.2017 21:58 12,4 C 68 % 1016,1 hPa 0,0 l/m 3,0 km/h (1 Bft) S 175 0 min 0,000 mm 0,0 UV-I 0 W/m 6,7 C 12,4 C 4,8 km/h (1 Bft) 93,62 %
02.04.2017 22:00 12,4 C 68 % 1016,1 hPa 0,0 l/m 5,1 km/h (1 Bft) S 176 0 min 0,025 mm 0,0 UV-I 0 W/m 6,7 C 12,4 C 6,4 km/h (2 Bft) 91,49 %
02.04.2017 22:02 12,6 C 68 % 1016,2 hPa 0,0 l/m 4,2 km/h (1 Bft) S 176 0 min 0,000 mm 0,0 UV-I 0 W/m 6,9 C 12,6 C 6,4 km/h (2 Bft) 88,00 %
02.04.2017 22:04 12,6 C 68 % 1016,2 hPa 0,0 l/m 3,7 km/h (1 Bft) S 175 0 min 0,000 mm 0,0 UV-I 0 W/m 6,9 C 12,6 C 4,8 km/h (1 Bft) 97,87 %
02.04.2017 22:06 12,6 C 68 % 1016,2 hPa 0,0 l/m 2,7 km/h (1 Bft) S 175 0 min 0,000 mm 0,0 UV-I 0 W/m 6,9 C 12,6 C 4,8 km/h (1 Bft) 92,00 %
02.04.2017 22:08 12,6 C 68 % 1016,2 hPa 0,0 l/m 2,4 km/h (1 Bft) S 175 0 min 0,000 mm 0,0 UV-I 0 W/m 6,9 C 12,6 C 3,2 km/h (1 Bft) 97,37 %
02.04.2017 22:10 12,6 C 68 % 1016,2 hPa 0,0 l/m 2,8 km/h (1 Bft) S 175 0 min 0,000 mm 0,0 UV-I 0 W/m 6,9 C 12,6 C 4,8 km/h (1 Bft) 95,74 %
02.04.2017 22:12 12,6 C 68 % 1016,2 hPa 0,0 l/m 3,1 km/h (1 Bft) S 175 0 min 0,000 mm 0,0 UV-I 0 W/m 6,9 C 12,6 C 4,8 km/h (1 Bft) 98,11 %
02.04.2017 22:14 12,6 C 68 % 1016,2 hPa 0,0 l/m 3,1 km/h (1 Bft) S 175 0 min 0,000 mm 0,0 UV-I 0 W/m 6,9 C 12,6 C 4,8 km/h (1 Bft) 97,87 %
02.04.2017 22:16 12,6 C 69 % 1016,2 hPa 0,0 l/m 3,5 km/h (1 Bft) S 177 0 min 0,000 mm 0,0 UV-I 0 W/m 7,1 C 12,6 C 6,4 km/h (2 Bft) 94,00 %
02.04.2017 22:18 12,6 C 69 % 1016,2 hPa 0,0 l/m 4,2 km/h (1 Bft) S 179 0 min 0,000 mm 0,0 UV-I 0 W/m 7,1 C 12,6 C 8,0 km/h (2 Bft) 89,36 %
02.04.2017 22:20 12,6 C 69 % 1016,2 hPa 0,0 l/m 3,6 km/h (1 Bft) S 182 0 min 0,000 mm 0,0 UV-I 0 W/m 7,1 C 12,6 C 6,4 km/h (2 Bft) 97,37 %
02.04.2017 22:22 12,6 C 69 % 1016,2 hPa 0,0 l/m 3,9 km/h (1 Bft) S 184 0 min 0,000 mm 0,0 UV-I 0 W/m 7,1 C 12,6 C 6,4 km/h (2 Bft) 94,00 %
02.04.2017 22:24 12,6 C 69 % 1016,2 hPa 0,0 l/m 3,8 km/h (1 Bft) S 186 0 min 0,000 mm 0,0 UV-I 0 W/m 7,1 C 12,6 C 6,4 km/h (2 Bft) 97,78 %
02.04.2017 22:26 12,6 C 69 % 1016,3 hPa 0,0 l/m 4,3 km/h (1 Bft) S 185 0 min 0,000 mm 0,0 UV-I 0 W/m 7,1 C 12,6 C 6,4 km/h (2 Bft) 96,00 %
02.04.2017 22:28 12,5 C 69 % 1016,2 hPa 0,0 l/m 3,4 km/h (1 Bft) S 186 0 min 0,000 mm 0,0 UV-I 0 W/m 7,0 C 12,5 C 4,8 km/h (1 Bft) 97,87 %
02.04.2017 22:30 12,5 C 69 % 1016,3 hPa 0,0 l/m 1,9 km/h (1 Bft) S 182 0 min 0,000 mm 0,0 UV-I 0 W/m 7,0 C 12,5 C 3,2 km/h (1 Bft) 96,00 %
02.04.2017 22:32 12,5 C 69 % 1016,2 hPa 0,0 l/m 3,3 km/h (1 Bft) S 171 0 min 0,000 mm 0,0 UV-I 0 W/m 7,0 C 12,5 C 6,4 km/h (2 Bft) 97,44 %
02.04.2017 22:34 12,5 C 69 % 1016,3 hPa 0,0 l/m 3,7 km/h (1 Bft) S 169 0 min 0,000 mm 0,0 UV-I 0 W/m 7,0 C 12,5 C 8,0 km/h (2 Bft) 96,00 %
02.04.2017 22:36 12,5 C 69 % 1016,3 hPa 0,0 l/m 3,4 km/h (1 Bft) S 174 0 min 0,000 mm 0,0 UV-I 0 W/m 7,0 C 12,5 C 8,0 km/h (2 Bft) 96,00 %
02.04.2017 22:38 12,5 C 69 % 1016,3 hPa 0,0 l/m 3,5 km/h (1 Bft) S 180 0 min 0,000 mm 0,0 UV-I 0 W/m 7,0 C 12,5 C 6,4 km/h (2 Bft) 100,00 %
02.04.2017 22:40 12,5 C 70 % 1016,3 hPa 0,0 l/m 3,6 km/h (1 Bft) S 182 0 min 0,000 mm 0,0 UV-I 0 W/m 7,2 C 12,5 C 6,4 km/h (2 Bft) 98,00 %
02.04.2017 22:42 12,4 C 70 % 1016,3 hPa 0,0 l/m 3,9 km/h (1 Bft) S 183 0 min 0,000 mm 0,0 UV-I 0 W/m 7,1 C 12,4 C 8,0 km/h (2 Bft) 100,00 %
02.04.2017 22:44 12,4 C 70 % 1016,4 hPa 0,0 l/m 4,8 km/h (1 Bft) S 179 0 min 0,000 mm 0,0 UV-I 0 W/m 7,1 C 12,4 C 8,0 km/h (2 Bft) 97,37 %
02.04.2017 22:46 12,4 C 70 % 1016,4 hPa 0,0 l/m 4,9 km/h (1 Bft) S 183 0 min 0,000 mm 0,0 UV-I 0 W/m 7,1 C 12,4 C 8,0 km/h (2 Bft) 98,31 %
02.04.2017 22:48 12,3 C 70 % 1016,4 hPa 0,0 l/m 3,9 km/h (1 Bft) S 186 0 min 0,000 mm 0,0 UV-I 0 W/m 7,0 C 12,3 C 6,4 km/h (2 Bft) 97,37 %
02.04.2017 22:50 12,3 C 70 % 1016,4 hPa 0,0 l/m 3,4 km/h (1 Bft) S 177 0 min 0,000 mm 0,0 UV-I 0 W/m 7,0 C 12,3 C 4,8 km/h (1 Bft) 100,00 %
02.04.2017 22:52 12,2 C 71 % 1016,4 hPa 0,0 l/m 3,1 km/h (1 Bft) S 177 0 min 0,000 mm 0,0 UV-I 0 W/m 7,1 C 12,2 C 4,8 km/h (1 Bft) 100,00 %
02.04.2017 22:54 12,1 C 71 % 1016,4 hPa 0,0 l/m 2,8 km/h (1 Bft) S 177 0 min 0,000 mm 0,0 UV-I 0 W/m 7,0 C 12,1 C 4,8 km/h (1 Bft) 100,00 %
02.04.2017 22:56 12,1 C 71 % 1016,4 hPa 0,0 l/m 2,8 km/h (1 Bft) S 177 0 min 0,000 mm 0,0 UV-I 0 W/m 7,0 C 12,1 C 4,8 km/h (1 Bft) 100,00 %
02.04.2017 22:58 12,0 C 72 % 1016,4 hPa 0,0 l/m 3,7 km/h (1 Bft) S 178 0 min 0,000 mm 0,0 UV-I 0 W/m 7,1 C 12,0 C 6,4 km/h (2 Bft) 94,34 %
02.04.2017 23:00 12,0 C 71 % 1016,4 hPa 0,0 l/m 3,5 km/h (1 Bft) S 177 0 min 0,000 mm 0,0 UV-I 0 W/m 6,9 C 12,0 C 6,4 km/h (2 Bft) 97,56 %
02.04.2017 23:02 12,1 C 71 % 1016,4 hPa 0,0 l/m 4,1 km/h (1 Bft) S 181 0 min 0,025 mm 0,0 UV-I 0 W/m 7,0 C 12,1 C 6,4 km/h (2 Bft) 98,11 %
02.04.2017 23:04 12,1 C 71 % 1016,4 hPa 0,0 l/m 3,3 km/h (1 Bft) S 179 0 min 0,000 mm 0,0 UV-I 0 W/m 7,0 C 12,1 C 6,4 km/h (2 Bft) 100,00 %
02.04.2017 23:06 12,1 C 71 % 1016,4 hPa 0,0 l/m 3,5 km/h (1 Bft) S 186 0 min 0,000 mm 0,0 UV-I 0 W/m 7,0 C 12,1 C 6,4 km/h (2 Bft) 98,11 %
02.04.2017 23:08 12,1 C 71 % 1016,4 hPa 0,0 l/m 3,7 km/h (1 Bft) S 187 0 min 0,000 mm 0,0 UV-I 0 W/m 7,0 C 12,1 C 6,4 km/h (2 Bft) 100,00 %
02.04.2017 23:10 12,1 C 71 % 1016,5 hPa 0,0 l/m 5,7 km/h (1 Bft) S 185 0 min 0,000 mm 0,0 UV-I 0 W/m 7,0 C 12,1 C 8,0 km/h (2 Bft) 98,39 %
02.04.2017 23:12 12,1 C 71 % 1016,5 hPa 0,0 l/m 4,4 km/h (1 Bft) S-SW 193 0 min 0,000 mm 0,0 UV-I 0 W/m 7,0 C 12,1 C 8,0 km/h (2 Bft) 94,74 %
02.04.2017 23:14 12,1 C 71 % 1016,6 hPa 0,0 l/m 3,7 km/h (1 Bft) S-SW 193 0 min 0,000 mm 0,0 UV-I 0 W/m 7,0 C 12,1 C 4,8 km/h (1 Bft) 100,00 %
02.04.2017 23:16 12,0 C 71 % 1016,6 hPa 0,0 l/m 2,9 km/h (1 Bft) S-SW 192 0 min 0,000 mm 0,0 UV-I 0 W/m 6,9 C 12,0 C 4,8 km/h (1 Bft) 100,00 %
02.04.2017 23:18 11,8 C 72 % 1016,7 hPa 0,0 l/m 3,9 km/h (1 Bft) S-SW 192 0 min 0,000 mm 0,0 UV-I 0 W/m 6,9 C 11,8 C 4,8 km/h (1 Bft) 96,15 %
02.04.2017 23:20 11,7 C 72 % 1016,6 hPa 0,0 l/m 3,4 km/h (1 Bft) S-SW 192 0 min 0,000 mm 0,0 UV-I 0 W/m 6,8 C 11,7 C 6,4 km/h (2 Bft) 98,53 %
02.04.2017 23:22 11,5 C 73 % 1016,7 hPa 0,0 l/m 4,8 km/h (1 Bft) S-SW 194 0 min 0,000 mm 0,0 UV-I 0 W/m 6,8 C 11,5 C 6,4 km/h (2 Bft) 97,87 %
02.04.2017 23:24 11,4 C 74 % 1016,7 hPa 0,0 l/m 4,4 km/h (1 Bft) S 182 0 min 0,000 mm 0,0 UV-I 0 W/m 6,9 C 11,4 C 6,4 km/h (2 Bft) 100,00 %
02.04.2017 23:26 11,3 C 74 % 1016,7 hPa 0,0 l/m 3,7 km/h (1 Bft) S 186 0 min 0,000 mm 0,0 UV-I 0 W/m 6,8 C 11,3 C 8,0 km/h (2 Bft) 97,37 %
02.04.2017 23:28 11,3 C 74 % 1016,7 hPa 0,0 l/m 5,2 km/h (1 Bft) S 188 0 min 0,000 mm 0,0 UV-I 0 W/m 6,8 C 11,3 C 8,0 km/h (2 Bft) 100,00 %
02.04.2017 23:30 11,4 C 74 % 1016,7 hPa 0,0 l/m 5,2 km/h (1 Bft) S-SW 192 0 min 0,000 mm 0,0 UV-I 0 W/m 6,9 C 11,4 C 8,0 km/h (2 Bft) 100,00 %
02.04.2017 23:32 11,5 C 74 % 1016,7 hPa 0,0 l/m 5,3 km/h (1 Bft) S-SW 192 0 min 0,000 mm 0,0 UV-I 0 W/m 7,0 C 11,5 C 8,0 km/h (2 Bft) 98,21 %
02.04.2017 23:34 11,5 C 74 % 1016,7 hPa 0,0 l/m 5,0 km/h (1 Bft) S-SW 192 0 min 0,000 mm 0,0 UV-I 0 W/m 7,0 C 11,5 C 8,0 km/h (2 Bft) 97,14 %
02.04.2017 23:36 11,5 C 73 % 1016,7 hPa 0,0 l/m 5,0 km/h (1 Bft) S-SW 192 0 min 0,000 mm 0,0 UV-I 0 W/m 6,8 C 11,5 C 8,0 km/h (2 Bft) 100,00 %
02.04.2017 23:38 11,5 C 74 % 1016,7 hPa 0,0 l/m 4,7 km/h (1 Bft) S-SW 192 0 min 0,000 mm 0,0 UV-I 0 W/m 7,0 C 11,5 C 6,4 km/h (2 Bft) 98,11 %
02.04.2017 23:40 11,4 C 74 % 1016,7 hPa 0,0 l/m 6,3 km/h (2 Bft) S-SW 194 0 min 0,000 mm 0,0 UV-I 0 W/m 6,9 C 11,4 C 8,0 km/h (2 Bft) 97,37 %
02.04.2017 23:42 11,4 C 74 % 1016,8 hPa 0,0 l/m 5,7 km/h (1 Bft) S-SW 194 0 min 0,000 mm 0,0 UV-I 0 W/m 6,9 C 11,4 C 8,0 km/h (2 Bft) 98,11 %
02.04.2017 23:44 11,3 C 74 % 1016,8 hPa 0,0 l/m 5,3 km/h (1 Bft) S 189 0 min 0,000 mm 0,0 UV-I 0 W/m 6,8 C 11,3 C 8,0 km/h (2 Bft) 98,00 %
02.04.2017 23:46 11,4 C 74 % 1016,8 hPa 0,0 l/m 5,2 km/h (1 Bft) S 189 0 min 0,000 mm 0,0 UV-I 0 W/m 6,9 C 11,4 C 8,0 km/h (2 Bft) 97,44 %
02.04.2017 23:48 11,4 C 74 % 1016,7 hPa 0,0 l/m 6,5 km/h (2 Bft) S 187 0 min 0,000 mm 0,0 UV-I 0 W/m 6,9 C 11,4 C 8,0 km/h (2 Bft) 100,00 %
02.04.2017 23:50 11,4 C 74 % 1016,8 hPa 0,0 l/m 4,8 km/h (1 Bft) S 187 0 min 0,000 mm 0,0 UV-I 0 W/m 6,9 C 11,4 C 8,0 km/h (2 Bft) 100,00 %
02.04.2017 23:52 11,3 C 74 % 1016,8 hPa 0,0 l/m 4,6 km/h (1 Bft) S 187 0 min 0,000 mm 0,0 UV-I 0 W/m 6,8 C 11,3 C 8,0 km/h (2 Bft) 100,00 %
02.04.2017 23:54 11,3 C 74 % 1016,8 hPa 0,0 l/m 3,4 km/h (1 Bft) S 187 0 min 0,000 mm 0,0 UV-I 0 W/m 6,8 C 11,3 C 6,4 km/h (2 Bft) 98,00 %
02.04.2017 23:56 11,3 C 74 % 1016,8 hPa 0,0 l/m 4,9 km/h (1 Bft) S 188 0 min 0,000 mm 0,0 UV-I 0 W/m 6,8 C 11,3 C 6,4 km/h (2 Bft) 94,29 %
02.04.2017 23:58 11,3 C 74 % 1016,8 hPa 0,0 l/m 5,9 km/h (2 Bft) S 190 0 min 0,000 mm 0,0 UV-I 0 W/m 6,8 C 11,3 C 8,0 km/h (2 Bft) 100,00 %
_ Min-Zeit 03:40 16:38 00:00 - 00:28 - - - - - - 00:00 05:36 00:28 20:04
Minimum _ 8,0 C 34 % 1009,2 hPa - 0,0 km/h (0 Bft) - - - - - - 3,7 C 6,5 C 0,0 km/h (0 Bft) 83,33 %
_ Max-Zeit 16:36 01:52 23:42 00:00 10:20 - - 11:50 13:00 12:56 13:48 13:42 16:36 10:18 00:00
Maximum _ 20,8 C 82 % 1016,8 hPa 0,0 l/m 15,7 km/h
W-SW (3 Bft)
- - 4 min 0,432 mm 3,5 UV-I 756 W/m 11,4 C 20,8 C 20,9 km/h
W-SW (4 Bft)
100,00 %
Durchschnitt _ 14,1 C 64 % 1013,6 hPa #0,0 l/m 4,5 km/h (1 Bft) S - #10:52 h #3,581 mm 2,1 UV-I 413 W/m 7,0 C 13,8 C 7,6 km/h (2 Bft) 96,55 %